     2.10           OBSERVATION DATA    G (GPS)             RINEX VERSION / TYPE
teqc 2002Mar14 Lou Estey 20020315 16:09:59UTC               PGM / RUN BY / DATE
Solaris 2.7|Ultra 2|cc SC5.0|=+-|*Sparc                     COMMENT
ARGO-to-RINEX conversion                                    COMMENT
TROMSO                                                      MARKER NAME
-Unknown- -Unknown-                                         OBSERVER / AGENCY
-Unknown- ROGUE -Unknown-                                   REC # / TYPE / VERS
-Unknown- -Unknown-                                         ANT # / TYPE
        0.0000        0.0000        0.0000                  APPROX POSITION XYZ
        0.0000        0.0000        0.0000                  ANTENNA: DELTA H/E/N
     1     1                                                WAVELENGTH FACT L1/2
     6    L1    L2    P1    P2    S1    S2                  # / TYPES OF OBSERV
  1991     3    18     0     0    0.0000000     GPS         TIME OF FIRST OBS
                                                            END OF HEADER
 91  3 18  0  0  0.0000000  0  5G11G17G21G19G23
  -1051858.206     -819630.260    22241715.350    22241716.728         185.000
       124.000
   2247670.438     1751428.282    22565389.670    22565391.519         143.000
       116.000
   -474009.632     -369358.567    24092938.500    24092938.414         100.000
        77.000
        -0.575          -0.873    23965576.387    23965581.930          99.000
        74.000
  -7280598.862    -5673191.490    21639000.563    21639000.552         220.000
       159.000
 91  3 18  0  2  0.0000000  0  4G11G17G21G23
  -1392699.370    -1085221.255    22176855.902    22176857.233         200.000
       131.000
   2640100.955     2057217.959    22640066.912    22640068.820         140.000
       112.000
   -945670.135     -736886.053    24003184.278    24003184.585          99.000
        79.000
  -7489223.484    -5835756.029    21599300.593    21599300.462         229.000
       163.000
 91  3 18  0  4  0.0000000  0  4G11G17G21G23
  -1728436.563    -1346835.950    22112968.245    22112969.894         190.000
       128.000
   3037231.319     2366670.313    22715638.367    22715639.856         128.000
       101.000
  -1414816.187    -1102454.380    23913908.704    23913908.884         104.000
        80.000
  -7689220.327    -5991597.332    21561242.200    21561242.035         223.000
       163.000
 91  3 18  0  6  0.0000000  0  4G11G23G17G 6
  -2058935.448    -1604367.304    22050076.113    22050077.713         198.000
       131.000
  -7880494.870    -6140642.135    21524843.689    21524843.290         228.000
       164.000
   3438915.913     2679671.445    22792076.073    22792077.606         124.000
        99.000
        -0.172           0.221    23805764.212    23805769.267          81.000
        74.000
 91  3 18  0  8  0.0000000  0  4G23G11G17G 6
  -8062954.471    -6282818.593    21490122.787    21490122.561         232.000
       168.000
  -2384068.561    -1857717.232    21988204.922    21988206.282         203.000
       134.000
   3845009.171     2996108.240    22869352.763    22869354.011         123.000
        99.000
   -370584.092     -288766.249    23735244.081    23735249.020          88.000
        70.000
 91  3 18  0 10  0.0000000  0  4G23G17G11G 6
  -8236510.314    -6418056.774    21457096.149    21457095.866         238.000
       170.000
   4255362.809     3315863.729    22947440.834    22947442.706         117.000
        97.000
  -2703704.235    -2106782.274    21927379.028    21927379.962         209.000
       140.000
   -733018.773     -571181.846    23666274.507    23666278.910          90.000
        72.000
 91  3 18  0 12  0.0000000  0  5G23G17G 6G11G21
  -8401080.345    -6546293.005    21425779.371    21425779.066         247.000
       177.000
   4669835.500     3638828.867    23026312.709    23026314.904         115.000
        94.000
  -1087088.863     -847079.480    23598896.327    23598900.758          86.000
        75.000
  -3017718.449    -2351469.250    21867624.601    21867625.549         220.000
       143.000
        -0.463          -0.362    23562218.074    23562218.581         113.000
        88.000
 91  3 18  0 14  0.0000000  0  5G23G17G 6G11G21
  -8556584.689    -6667465.131    21396187.787    21396187.532         237.000
       175.000
   5088282.922     3964891.260    23105940.652    23105943.208         108.000
        91.000
  -1432583.429    -1116296.833    23533151.128    23533156.047          91.000
        80.000
  -3325972.621    -2591666.020    21808964.716    21808965.636         220.000
       145.000
   -454101.037     -353845.567    23475806.016    23475806.536         128.000
        94.000
 91  3 18  0 16  0.0000000  0  5G17G 6G23G11G21
   5510563.078     4293940.424    23186298.071    23186300.662         103.000
        86.000
  -1769285.357    -1378661.677    23469078.801    23469083.319          90.000
        80.000
  -8702949.799    -6781515.466    21368335.136    21368334.792         242.000
       179.000
  -3628343.141    -2827279.187    21751425.299    21751426.113         222.000
       148.000
   -904691.501     -704955.305    23390061.492    23390062.447         126.000
        93.000
 91  3 18  0 18  0.0000000  0  4G11G21G23G 6
  -3924694.817    -3058200.908    21695030.197    21695030.529         222.000
       148.000
  -1351604.969    -1053199.779    23305016.972    23305017.872         130.000
        95.000
  -8840105.280    -6888389.083    21342234.642    21342234.044         239.000
       178.000
  -2096987.034    -1634012.545    23406718.580    23406722.803          97.000
        82.000
 91  3 18  0 20  0.0000000  0  5G23G11G21G17G 6
  -8967990.581    -6988039.818    21317898.873    21317898.231         237.000
       178.000
  -4214907.660    -3284342.018    21639805.518    21639806.277         220.000
       150.000
  -1794676.846    -1398450.259    23220702.975    23220703.394         130.000
        94.000
        -0.037          -0.197    23349092.874    23349095.419          95.000
        81.000
  -2415486.765    -1882193.376    23346109.481    23346113.474          99.000
        81.000
 91  3 18  0 22  0.0000000  0  5G11G21G17G 6G23
  -4498842.861    -3505590.328    21585774.556    21585775.298         223.000
       151.000
  -2233738.751    -1740576.618    23137152.553    23137153.105         137.000
       101.000
    432927.684      337346.130    23431476.225    23431478.889          93.000
        81.000
  -2724581.991    -2123045.687    23287289.755    23287293.657          99.000
        81.000
  -9086545.946    -7080420.721    21295338.615    21295338.010         238.000
       179.000
 91  3 18  0 24  0.0000000  0  5G23G11G17G21G 6
  -9195715.577    -7165488.321    21274564.600    21274564.021         243.000
       181.000
  -4776369.669    -3721842.931    21532961.395    21532961.662         228.000
       154.000
    869125.981      677240.977    23514482.170    23514484.526          92.000
        82.000
  -2668620.700    -2079446.333    23054397.696    23054398.536         143.000
       105.000
  -3024074.339    -2356414.443    23230296.764    23230300.045          99.000
        80.000
 91  3 18  0 26  0.0000000  0  5G23G11G17G21G 6
  -9295451.826    -7243206.204    21255586.405    21255586.392         244.000
       185.000
  -5047369.546    -3933012.061    21481392.138    21481392.568         230.000
       160.000
   1308455.140     1019575.181    23598083.741    23598086.163          87.000
        76.000
  -3099157.803    -2414930.350    22972469.566    22972470.555         146.000
       108.000
  -3313775.462    -2582154.599    23175167.800    23175170.705         100.000
        80.000
 91  3 18  0 28  0.0000000  0  5G23G11G17G21G 6
  -9385707.974    -7313536.574    21238411.928    21238411.923         248.000
       186.000
  -5311709.937    -4138991.729    21431089.910    21431090.302         236.000
       163.000
   1750777.703     1364241.903    23682255.161    23682257.649          85.000
        70.000
  -3525179.350    -2746894.940    22891400.191    22891401.161         150.000
       108.000
  -3593494.683    -2800116.191    23121937.831    23121940.608         107.000
        84.000
 91  3 18  0 30  0.0000000  0  5G23G11G17G21G 6
  -9466442.368    -7376445.596    21223048.032    21223047.731         246.000
       185.000
  -5569263.165    -4339681.509    21382078.322    21382078.476         231.000
       161.000
   2195957.868     1711135.200    23766970.277    23766972.738          84.000
        68.000
  -3946521.466    -3075213.503    22811221.438    22811222.256         152.000
       111.000
  -3863053.748    -3010162.603    23070642.748    23070645.640         109.000
        89.000
 91  3 18  0 32  0.0000000  0  5G23G11G21G17G 6
  -9537625.581    -7431912.808    21209502.098    21209501.919         246.000
       187.000
  -5819904.637    -4534984.706    21334381.449    21334381.043         234.000
       164.000
  -4363015.963    -3399754.583    22731965.010    22731965.852         158.000
       115.000
   2643860.122     2060149.323    23852203.689    23852206.788          79.000
        72.000
  -4122269.556    -3212148.253    23021315.142    23021317.760         114.000
        89.000
 91  3 18  0 34  0.0000000  0  5G23G17G11G 6G21
  -9599229.288    -7479915.874    21197779.417    21197779.346         246.000
       186.000
   3094351.791     2411180.801    23937930.129    23937933.551          72.000
        71.000
  -6063513.600    -4724809.226    21288023.744    21288023.270         235.000
       169.000
  -4370971.430    -3405941.411    22973988.366    22973990.739         112.000
        88.000
  -4774495.778    -3720388.241    22653663.097    22653663.969         161.000
       118.000
 91  3 18  0 36  0.0000000  0  5G23G11G17G21G 6
  -9651228.757    -7520435.089    21187884.368    21187884.261         247.000
       187.000
  -6299965.463    -4909057.119    21243028.182    21243027.663         236.000
       172.000
   3547301.036     2764127.544    24024123.817    24024127.697          74.000
        68.000
  -5180795.892    -4036985.626    22576346.789    22576347.596         163.000
       122.000
  -4608992.540    -3591411.831    22928694.036    22928696.222         111.000
        88.000
 91  3 18  0 38  0.0000000  0  4G23G 6G11G21
  -9693609.714    -7553460.054    21179820.228    21179820.216         254.000
       192.000
  -4836171.717    -3768433.486    22885462.368    22885464.471         113.000
        87.000
  -6529138.979    -5087633.969    21199418.003    21199417.522         240.000
       175.000
  -5581750.786    -4349418.002    22500047.616    22500048.468         169.000
       126.000
 91  3 18  0 40  0.0000000  0  4G23G11G21G 6
  -9726353.611    -7578974.347    21173588.879    21173588.784         248.000
       188.000
  -6750913.971    -5260446.649    21157216.342    21157216.095         239.000
       177.000
  -5977195.391    -4657556.381    22424796.827    22424797.582         182.000
       131.000
  -5052354.181    -3936886.167    22844323.406    22844325.071         121.000
        93.000
 91  3 18  0 42  0.0000000  0  3G11G23G21
  -6965168.100    -5427397.714    21116445.103    21116444.735         243.000
       179.000
  -9749454.576    -7596973.923    21169192.095    21169191.693         255.000
       201.000
  -6366967.024    -4961274.309    22350625.546    22350626.214         180.000
       131.000
 91  3 18  0 44  0.0000000  0  6G11G17G 2G 6G23G21
  -7171784.961    -5588396.872    21077126.389    21077125.840         235.000
       179.000
         0.185           0.268    24373079.018    24373082.197          67.000
        56.000
        -0.973          -0.951    24795506.213    24795510.328          61.000
        54.000
        -0.356          -0.198    22768434.330    22768435.246         126.000
        94.000
  -9762916.140    -7607464.247    21166630.997    21166630.856         246.000
       190.000
  -6750902.056    -5260444.109    22277564.646    22277565.415         182.000
       133.000
 91  3 18  0 46  0.0000000  0  5G11G 2G 6G21G23
  -7370651.324    -5743356.332    21039282.362    21039281.458         240.000
       183.000
   -393651.777     -306741.061    24720596.315    24720600.427          64.000
        50.000
   -182334.017     -142077.876    22733736.940    22733737.997         126.000
        96.000
  -7128839.032    -5554940.302    22205645.777    22205646.336         190.000
       137.000
  -9766736.491    -7610441.475    21165904.236    21165904.126         250.000
       192.000
 91  3 18  0 48  0.0000000  0  5G 2G11G 6G21G23
   -782580.428     -609801.471    24646585.207    24646588.273          78.000
        53.000
  -7561658.230    -5892194.030    21002935.881    21002935.163         240.000
       186.000
   -353119.916     -275157.464    22701237.164    22701238.011         127.000
        96.000
  -7500616.726    -5844636.960    22134898.483    22134898.979         190.000
       138.000
  -9760921.394    -7605909.642    21167010.456    21167010.089         252.000
       192.000
 91  3 18  0 50  0.0000000  0  5G21G11G 2G 6G23
  -7866076.605    -6129410.461    22065353.490    22065353.954         195.000
       142.000
  -7744688.047    -6034814.735    20968106.487    20968105.933         242.000
       191.000
  -1166608.188     -909043.077    24573506.394    24573509.640          77.000
        58.000
   -512239.216     -399146.786    22670957.984    22670959.052         126.000
        97.000
  -9745490.409    -7593885.290    21169946.628    21169946.436         251.000
       190.000
 91  3 18  0 52  0.0000000  0  4G21G11G 6G23
  -8225061.519    -6409138.630    21997040.738    21997041.051         203.000
       147.000
  -7919636.212    -6171138.919    20934815.641    20934815.277         239.000
       191.000
   -659576.711     -513954.738    22642920.299    22642921.086         129.000
        98.000
  -9720464.355    -7574385.789    21174709.955    21174710.044         252.000
       192.000
 91  3 18  0 54  0.0000000  0  4G21G11G 6G23
  -8577415.515    -6683700.047    21929989.898    21929990.296         207.000
       151.000
  -8086395.178    -6301081.843    20903083.016    20903083.032         236.000
       194.000
   -795029.856     -619502.298    22617144.192    22617144.939         130.000
        99.000
  -9685860.957    -7547422.587    21181295.143    21181295.259         251.000
       192.000
 91  3 18  0 56  0.0000000  0  5G21G11G 6G23G 2
  -8922982.372    -6952972.407    21864230.375    21864230.518         208.000
       152.000
  -8244863.191    -6424565.322    20872929.099    20872929.543         232.000
       191.000
   -918500.407     -715712.457    22593648.005    22593648.481         128.000
        98.000
  -9641710.978    -7513020.190    21189696.742    21189696.859         250.000
       192.000
        -0.120           0.483    24360200.503    24360203.521          74.000
        62.000
 91  3 18  0 58  0.0000000  0  5G 2G21G 6G11G23
   -362668.398     -282597.760    24291186.622    24291189.570          78.000
        65.000
  -9261611.160    -7216838.604    21799790.962    21799791.242         212.000
       156.000
  -1029901.532     -802518.285    22572448.763    22572449.315         125.000
        98.000
  -8394939.284    -6541510.911    20844372.944    20844374.201         237.000
       196.000
  -9588048.801    -7471205.070    21199908.041    21199908.100         254.000
       191.000
 91  3 18  1  0  0.0000000  0  5G21G 2G 6G11G23
  -9593151.188    -7475181.636    21736701.294    21736701.396         218.000
       157.000
   -719558.817     -560693.842    24223272.608    24223275.240          89.000
        63.000
  -1129151.695     -879855.850    22553562.119    22553562.443         130.000
        99.000
  -8536521.684    -6651837.491    20817432.682    20817434.496         230.000
       194.000
  -9524912.619    -7422007.200    21211921.846    21211921.549         249.000
       188.000
 91  3 18  1  2  0.0000000  0  5G 2G21G 6G11G23
  -1070496.869     -834151.828    24156490.969    24156493.335          84.000
        64.000
  -9917454.093    -7727885.135    21674988.398    21674988.583         221.000
       161.000
  -1216178.958     -947668.819    22537000.921    22537001.201         129.000
        98.000
  -8669513.859    -6755468.832    20792125.971    20792127.949         234.000
       197.000
  -9452350.293    -7365465.282    21225730.075    21225729.959         248.000
       188.000
 91  3 18  1  4  0.0000000  0  5G 2G21G 6G11G23
  -1415310.078    -1102837.240    24090874.924    24090877.616          81.000
        69.000
 -10234373.844    -7974835.603    21614680.689    21614680.673         233.000
       164.000
  -1290921.176    -1005909.369    22522777.775    22522777.955         131.000
        97.000
  -8793823.267    -6852331.940    20768469.565    20768471.300         235.000
       202.000
  -9370409.921    -7301615.717    21241322.847    21241322.718         252.000
       186.000
 91  3 18  1  6  0.0000000  0  4G11G 2G 6G23
  -8909362.434    -6942360.810    20746482.036    20746483.321         223.000
       200.000
  -1753825.250    -1366615.028    24026457.573    24026460.224          88.000
        69.000
  -1353321.561    -1054532.644    22510903.204    22510903.188         129.000
        96.000
  -9279144.273    -7230499.801    21258690.195    21258690.228         234.000
       178.000
 91  3 18  1  8  0.0000000  0  5G11G 6G23G21G 2
  -9016048.575    -7025491.952    20726179.585    20726180.700         227.000
       201.000
  -1403335.862    -1093504.724    22501385.655    22501385.756         129.000
        96.000
  -9178607.870    -7152158.343    21277820.661    21277820.263         240.000
       181.000
        -0.989          -0.273    21498390.096    21498390.339         230.000
       168.000
  -2085873.464    -1625353.809    23963270.790    23963273.079          86.000
        66.000
 91  3 18  1 10  0.0000000  0  5G11G 6G23G21G 2
  -9113795.451    -7101656.151    20707577.335    20707577.906         233.000
       203.000
  -1440928.164    -1122797.781    22494232.448    22494232.449         132.000
        97.000
  -9068869.947    -7066647.870    21298702.788    21298702.221         244.000
       183.000
   -293915.080     -229023.797    21442459.854    21442460.015         238.000
       172.000
  -2411285.985    -1878922.042    23901346.866    23901349.408          92.000
        70.000
 91  3 18  1 12  0.0000000  0  5G21G 2G 6G11G23
   -579884.755     -451856.670    21388041.101    21388040.946         229.000
       168.000
  -2729894.673    -2127188.165    23840717.382    23840719.543         102.000
        73.000
  -1466068.229    -1142387.516    22489448.386    22489448.681         133.000
       100.000
  -9202525.417    -7170793.386    20690690.404    20690690.145         220.000
       198.000
  -8949997.357    -6974019.979    21321323.593    21321323.079         230.000
       174.000
 91  3 18  1 14  0.0000000  0  5G21G 2G 6G23G11
   -857779.173     -668397.946    21335159.710    21335159.688         243.000
       174.000
  -3041534.132    -2370023.706    23781413.623    23781416.337          91.000
        71.000
  -1478738.009    -1152260.071    22487037.334    22487037.512         130.000
        97.000
  -8822065.884    -6874336.414    21345670.576    21345670.936         237.000
       178.000
  -9282168.148    -7232851.257    20675533.788    20675533.352         232.000
       212.000
 91  3 18  1 16  0.0000000  0  6G21G 2G 6G11G15G23
  -1127468.198     -878545.623    21283839.794    21283839.943         241.000
       174.000
  -3346042.905    -2607302.817    23723467.468    23723469.429          94.000
        73.000
  -1478927.968    -1152408.291    22487001.434    22487001.690         127.000
        96.000
  -9352656.942    -7287779.402    20662121.545    20662121.533         233.000
       212.000
        -0.348           0.253    24582165.295    24582170.453          73.000
        75.000
  -8685141.994    -6767643.714    21371727.149    21371727.904         229.000
       175.000
 91  3 18  1 18  0.0000000  0  4G11G21G 6G23
  -9413913.968    -7335512.367    20650464.922    20650464.877         236.000
       213.000
  -1388820.421    -1082195.752    21234105.478    21234105.269         253.000
       182.000
  -1466636.356    -1142830.549    22489340.484    22489340.867         132.000
        99.000
  -8539309.167    -6654008.872    21399479.115    21399480.163         234.000
       174.000
 91  3 18  1 20  0.0000000  0  4G11G21G 6G23
  -9465876.735    -7376001.150    20640575.439    20640574.963         235.000
       212.000
  -1641719.762    -1279260.604    21185980.559    21185980.589         254.000
       183.000
  -1441872.555    -1123534.220    22494053.065    22494053.377         134.000
        99.000
  -8384641.633    -6533484.123    21428907.900    21428907.664         234.000
       171.000
 91  3 18  1 22  0.0000000  0  5G11G21G 2G 6G23
  -9508492.761    -7409207.952    20632465.469    20632464.933         235.000
       212.000
  -1886041.778    -1469641.093    21139487.560    21139487.330         255.000
       184.000
         0.126          -0.420    23558075.579    23558077.501         104.000
        80.000
  -1404653.432    -1094532.422    22501135.633    22501136.067         129.000
        98.000
  -8221241.733    -6406156.364    21459999.429    21459998.474         231.000
       173.000
 91  3 18  1 24  0.0000000  0  5G11G21G 2G 6G23
  -9541712.935    -7435095.631    20626146.285    20626146.496         236.000
       203.000
  -2121671.236    -1653247.646    21094648.052    21094647.801         255.000
       186.000
   -274395.818     -213815.260    23505859.522    23505861.499         102.000
        81.000
  -1355005.197    -1055845.636    22510583.444    22510583.909         129.000
        98.000
  -8049203.727    -6272100.526    21492737.042    21492736.008         228.000
       174.000
 91  3 18  1 26  0.0000000  0  4G21G 6G23G11
  -2348499.404    -1829997.357    21051484.495    21051484.385         255.000
       190.000
  -1292963.638    -1007501.698    22522389.861    22522390.223         132.000
        98.000
  -7868618.509    -6131385.257    21527101.526    21527100.816         225.000
       174.000
  -9565467.721    -7453603.101    20621624.372    20621624.080         240.000
       209.000
 91  3 18  1 28  0.0000000  0  6G15G21G 2G 6G23G11
         0.150           0.489    24050077.390    24050080.185          83.000
        73.000
  -2566415.877    -1999803.454    21010017.116    21010017.266         255.000
       192.000
        -0.194           0.418    23405972.687    23405974.561         104.000
        81.000
  -1218574.443     -949536.494    22536545.937    22536546.325         131.000
        98.000
  -7679582.307    -5984083.373    21563073.223    21563072.226         220.000
       171.000
  -9579727.942    -7464714.868    20618910.670    20618910.309         237.000
       208.000
 91  3 18  1 30  0.0000000  0  5G11G 2G21G 6G23
  -9584443.575    -7468387.522    20618011.883    20618011.121         241.000
       208.000
   -250220.752     -194976.351    23358356.962    23358358.950         103.000
        83.000
  -2775315.698    -2162583.246    20970265.366    20970265.592         255.000
       195.000
  -1131889.510     -881989.954    22553041.548    22553042.176         128.000
        98.000
  -7482202.289    -5830281.126    21600633.647    21600632.762         218.000
       170.000
 91  3 18  1 32  0.0000000  0  5G11G 2G 6G23G21
  -9579588.923    -7464606.127    20618936.820    20618936.349         243.000
       213.000
   -492095.412     -383449.965    23312329.710    23312331.413         105.000
        84.000
  -1032970.820     -804910.582    22571865.274    22571865.934         127.000
        98.000
  -7276584.050    -5670060.964    21639763.060    21639762.654         215.000
       166.000
  -2975095.331    -2318254.954    20932248.036    20932248.070         255.000
       196.000
 91  3 18  1 34  0.0000000  0  4G21G 6G11G23
  -3165662.662    -2466748.134    20895983.557    20895983.476         255.000
       199.000
   -921890.385     -718354.838    22593003.603    22593004.378         125.000
        98.000
  -9565120.988    -7453331.781    20621689.469    20621688.898         245.000
       215.000
  -7062832.740    -5503503.048    21680439.675    21680439.396         213.000
       162.000
 91  3 18  1 36  0.0000000  0  5G 2G 6G23G21G11
         0.458          -0.118    23225143.504    23225145.214         114.000
        89.000
   -798727.324     -622384.305    22616441.145    22616442.199         121.000
        96.000
  -6841058.405    -5330691.636    21722641.924    21722641.616         210.000
       161.000
  -3346927.054    -2607993.215    20861490.224    20861490.045         255.000
       203.000
  -9541017.870    -7434550.321    20626276.285    20626275.716         247.000
       217.000
 91  3 18  1 38  0.0000000  0  6G15G 2G 6G23G21G11
         0.354          -0.173    23617732.530    23617734.479          95.000
        84.000
   -216031.335     -168336.583    23184034.182    23184035.615         126.000
        94.000
   -663568.496     -517066.146    22642161.383    22642162.278         128.000
        98.000
  -6611381.253    -5151723.243    21766348.618    21766348.568         210.000
       161.000
  -3518798.199    -2741917.471    20828783.272    20828782.834         251.000
       199.000
  -9507257.433    -7408243.834    20632700.958    20632700.495         235.000
       208.000
 91  3 18  1 40  0.0000000  0  6G 2G11G15G 6G23G21
   -423190.058     -329758.512    23144612.626    23144614.043         119.000
        90.000
  -9463824.137    -7374400.970    20640966.968    20640966.825         250.000
       215.000
   -446536.202     -347949.117    23532758.271    23532759.782          92.000
        86.000
   -516509.470     -402474.747    22670145.928    22670146.747         124.000
        94.000
  -6373914.023    -4966683.954    21811537.082    21811537.043         204.000
       159.000
  -3681197.988    -2868462.359    20797879.328    20797878.634         255.000
       202.000
 91  3 18  1 42  0.0000000  0  6G 2G15G11G21G 6G23
   -621357.343     -484174.169    23106902.456    23106903.850         121.000
        93.000
   -890155.977     -693627.391    23448340.722    23448342.080          96.000
        89.000
  -9410700.604    -7333005.814    20651075.946    20651075.697         253.000
       215.000
  -3834049.567    -2987568.342    20768793.339    20768792.864         255.000
       205.000
   -357655.532     -278692.354    22700374.629    22700375.556         120.000
        93.000
  -6128775.820    -4775665.953    21858184.450    21858184.102         201.000
       156.000
 91  3 18  1 44  0.0000000  0  6G 2G15G11G21G 6G23
   -810414.489     -631490.718    23070925.279    23070926.631         119.000
        95.000
  -1330721.516    -1036925.294    23364504.026    23364505.286         107.000
        91.000
  -9347882.086    -7284055.555    20663029.328    20663028.874         252.000
       210.000
  -3977277.286    -3099175.059    20741538.502    20741538.236         255.000
       206.000
   -187118.414     -145806.268    22732826.662    22732827.658         118.000
        91.000
  -5876093.653    -4578770.356    21906267.983    21906267.500         203.000
       156.000
 91  3 18  1 46  0.0000000  0  4G21G 6G23G11
  -4110809.333    -3203224.302    20716126.856    20716126.305         252.000
       205.000
     -5016.626       -3908.138    22767479.112    22767479.655         117.000
        86.000
  -5615990.175    -4376092.020    21955763.766    21955763.179         187.000
       147.000
  -9275368.657    -7227552.358    20676828.782    20676828.438         248.000
       209.000
 91  3 18  1 48  0.0000000  0  5G11G 2G21G 6G23
  -9193159.672    -7163493.110    20692472.369    20692472.067         255.000
       213.000
        -0.482          -0.498    23004256.100    23004256.790         127.000
        94.000
  -4234592.147    -3299678.674    20692571.996    20692571.368         255.000
       209.000
    188520.217      146900.398    22804307.472    22804308.028         116.000
        87.000
  -5348595.815    -4167733.916    22006647.918    22006647.880         191.000
       150.000
 91  3 18  1 50  0.0000000  0  5G11G15G21G 2G 6
  -9101265.491    -7091887.468    20709959.457    20709959.214         255.000
       211.000
        -0.993          -0.528    23116732.214    23116733.572         114.000
        98.000
  -4348561.043    -3388484.936    20670883.965    20670883.101         255.000
       213.000
   -161076.777     -125513.470    22973603.352    22973603.982         125.000
        93.000
    393357.900      306514.574    22843286.431    22843286.931         111.000
        86.000
 91  3 18  1 52  0.0000000  0  6G11G15G 2G21G 6G23
  -8999701.951    -7012748.573    20729287.453    20729287.597         255.000
       209.000
   -427020.948     -332742.831    23035472.787    23035474.186         120.000
       101.000
   -312627.797     -243604.875    22944763.925    22944764.384         125.000
        93.000
  -4452667.274    -3469606.116    20651072.699    20651071.894         255.000
       215.000
    609353.881      474823.266    22884389.021    22884389.446         110.000
        86.000
         0.137           0.284    22112482.032    22112481.656         181.000
       142.000
 91  3 18  1 54  0.0000000  0  5G15G 2G11G21G23
   -850316.670     -662582.788    22954921.705    22954922.858         122.000
       105.000
   -454557.751     -354199.208    22917755.282    22917755.707         124.000
        92.000
  -8888480.191    -6926081.780    20750451.924    20750451.798         255.000
       205.000
  -4546864.372    -3543007.010    20633148.019    20633147.223         255.000
       216.000
    288500.818      224806.309    22167381.544    22167381.288         167.000
       135.000
 91  3 18  1 56  0.0000000  0  5G23G 2G15G11G21
    583769.928      454885.852    22223569.664    22223569.419         170.000
       134.000
   -586780.821     -457229.679    22892593.718    22892593.958         132.000
        94.000
  -1269754.351     -989417.838    22875105.498    22875106.942         126.000
       105.000
  -8767627.707    -6831911.314    20773449.548    20773449.599         255.000
       200.000
  -4631107.627    -3608651.269    20617117.186    20617116.489         254.000
       210.000
 91  3 18  1 58  0.0000000  0  6G23G 2G 6G15G11G21
    885673.545      690135.820    22281019.781    22281019.383         169.000
       136.000
   -709218.763     -552635.638    22869294.361    22869294.542         134.000
        96.000
        -0.301          -0.400    23020148.669    23020148.963         107.000
        84.000
  -1685199.560    -1313143.237    22796050.295    22796052.051         131.000
       107.000
  -8637172.227    -6730257.887    20798274.577    20798274.660         255.000
       200.000
  -4705360.405    -3666510.360    20602987.260    20602986.481         254.000
       212.000
 91  3 18  2  0  0.0000000  0  6G 2G 6G15G23G11G21
   -821791.022     -640352.575    22847871.256    22847871.011         140.000
        97.000
    259082.670      201884.474    23069448.862    23069448.735         109.000
        84.000
  -2096506.462    -1633642.267    22717781.625    22717783.078         143.000
       115.000
   1194073.298      930447.426    22339706.163    22339705.779         169.000
       133.000
  -8497146.925    -6621147.404    20824920.683    20824920.764         252.000
       191.000
  -4769593.485    -3716562.162    20590764.059    20590763.318         242.000
       207.000
 91  3 18  2  2  0.0000000  0  6G 2G11G15G12G23G21
   -924433.494     -720333.120    22828338.652    22828338.215         133.000
        94.000
  -8347588.547    -6504607.452    20853379.934    20853379.824         255.000
       199.000
  -2503540.289    -1950811.208    22640325.102    22640326.982         133.000
       115.000
         0.148          -0.444    24394860.958    24394862.571          73.000
        55.000
   1508831.063     1175712.976    22399602.814    22399602.456         156.000
       127.000
  -4823778.743    -3758783.852    20580452.506    20580451.678         255.000
       213.000
 91  3 18  2  4  0.0000000  0  5G 6G15G 2G21G11
        -0.035          -0.823    23173925.812    23173925.756          91.000
        77.000
  -2906162.055    -2264542.039    22563708.406    22563710.066         142.000
       120.000
  -1017080.774     -792525.414    22810708.148    22810707.718         136.000
        98.000
  -4867898.787    -3793163.279    20572056.964    20572056.028         255.000
       217.000
  -8188544.978    -6380677.992    20883645.414    20883645.461         255.000
       197.000
 91  3 18  2  6  0.0000000  0  6G 6G23G 2G11G15G21
    289588.835      225652.655    23229033.059    23229033.087          95.000
        76.000
        -0.236          -0.833    22522920.235    22522920.028         148.000
       121.000
  -1099676.569     -856886.113    22794991.080    22794990.458         140.000
        98.000
  -8020061.699    -6249392.668    20915706.875    20915707.004         255.000
       190.000
  -3304231.773    -2574725.290    22487957.633    22487959.129         146.000
       124.000
  -4901934.813    -3819683.872    20565579.316    20565578.270         255.000
       215.000
 91  3 18  2  8  0.0000000  0  6G 6G15G23G 2G11G21
    588974.751      458940.218    23286004.341    23286004.447          94.000
        76.000
  -3697612.564    -2881255.878    22413099.802    22413101.394         149.000
       127.000
    332996.950      259477.137    22586287.842    22586288.079         147.000
       121.000
  -1172165.628     -913370.562    22781196.384    22781195.983         142.000
       101.000
  -7842191.035    -6110792.448    20949554.858    20949554.978         255.000
       188.000
  -4925882.021    -3838344.084    20561022.459    20561021.310         254.000
       213.000
 91  3 18  2 10  0.0000000  0  6G15G23G 2G11G 6G21
  -4086164.766    -3184023.906    22339161.028    22339162.295         158.000
       129.000
    671792.215      523473.049    22650758.631    22650758.936         140.000
       118.000
  -1234505.551     -961946.990    22769333.521    22769332.946         142.000
       101.000
  -7654992.100    -5964923.158    20985177.669    20985177.755         255.000
       188.000
    897959.943      699706.361    23344803.523    23344803.800          93.000
        74.000
  -4939733.975    -3849137.604    20558386.363    20558385.100         255.000
       212.000
 91  3 18  2 12  0.0000000  0  6G15G23G 2G11G 6G21
  -4469749.202    -3482921.611    22266167.882    22266169.444         160.000
       134.000
   1016242.286      791875.123    22716305.794    22716306.114         137.000
       116.000
  -1286658.362    -1002585.643    22759409.131    22759408.663         140.000
       100.000
  -7458527.942    -5811833.815    21022563.277    21022563.237         255.000
       191.000
   1216348.647      947800.348    23405391.806    23405392.177          86.000
        73.000
  -4943492.220    -3852065.886    20557670.975    20557669.657         255.000
       216.000
 91  3 18  2 14  0.0000000  0  5G15G 2G11G21G23
  -4848223.369    -3777837.282    22194147.207    22194148.981         160.000
       136.000
  -1328589.530    -1035259.120    22751429.781    22751429.069         140.000
        98.000
  -7252867.100    -5651578.833    21061699.227    21061699.476         255.000
       185.000
  -4937164.946    -3847135.548    20558875.054    20558873.894         255.000
       212.000
   1366205.661     1064573.449    22782902.004    22782902.221         132.000
       110.000
 91  3 18  2 16  0.0000000  0  7G15G 2G11G21G 6G23G12
  -5221445.758    -4068659.689    22123125.051    22123126.828         166.000
       142.000
  -1360273.547    -1059947.887    22745400.550    22745399.773         143.000
       101.000
  -7038082.602    -5484214.724    21102571.767    21102572.120         255.000
       185.000
  -4920766.862    -3834358.800    20561996.194    20561995.385         252.000
       209.000
        -0.754          -0.028    23531779.701    23531780.780          81.000
        70.000
   1721539.538     1341456.669    22850520.185    22850520.436         131.000
       106.000
         0.242           0.426    23899102.431    23899104.841          79.000
        66.000
 91  3 18  2 18  0.0000000  0  5G15G11G21G23G12
  -5589279.473    -4355283.480    22053128.783    22053130.542         169.000
       144.000
  -6814252.070    -5309802.050    21145165.881    21145166.403         255.000
       185.000
  -4894312.852    -3813746.302    20567030.961    20567030.263         255.000
       212.000
   2082101.372     1622413.590    22919133.036    22919133.065         125.000
       102.000
   -343821.423     -267913.423    23833676.003    23833678.653          79.000
        68.000
 91  3 18  2 20  0.0000000  0  5G15G21G11G23G12
  -5951585.401    -4637600.403    21984184.754    21984186.540         173.000
       147.000
  -4857824.707    -3785314.007    20573974.542    20573973.793         255.000
       209.000
  -6581453.825    -5128400.826    21189465.903    21189466.350         255.000
       179.000
   2447744.454     1907329.441    22988712.906    22988713.667         120.000
       102.000
   -679937.056     -529822.110    23769715.863    23769718.128          89.000
        64.000
 91  3 18  2 22  0.0000000  0  5G11G12G15G23G21
  -6339776.719    -4940081.155    21235455.670    21235456.042         255.000
       175.000
  -1008146.602     -785569.017    23707259.005    23707261.300          93.000
        66.000
  -6308221.512    -4915499.241    21916319.554    21916321.510         174.000
       148.000
   2818329.207     2196097.051    23059233.047    23059233.411         118.000
       100.000
  -4811333.314    -3749086.821    20582821.444    20582820.636         255.000
       208.000
 91  3 18  2 24  0.0000000  0  6G15G21G11G 2G12G23
  -6659046.377    -5188868.364    21849559.030    21849560.767         176.000
       152.000
  -4754872.082    -3705090.854    20593565.440    20593564.760         255.000
       208.000
  -6089310.138    -4744911.897    21283117.465    21283117.870         255.000
       175.000
         0.186           0.114    22740837.373    22740836.395         140.000
        98.000
  -1328257.212    -1035005.641    23646343.891    23646346.122          91.000
        68.000
   3193708.335     2488599.901    23130665.505    23130666.331         110.000
        98.000
 91  3 18  2 26  0.0000000  0  6G11G12G15G 2G23G21
  -5830150.323    -4542969.822    21332434.500    21332434.998         255.000
       174.000
  -1640071.035    -1277975.896    23587006.378    23587008.252          91.000
        72.000
  -7003922.026    -5457601.637    21783930.574    21783932.209         181.000
       158.000
     19711.626       15359.660    22744588.576    22744587.624         146.000
       101.000
   3573742.476     2784730.585    23202983.266    23202984.094         106.000
        95.000
  -4688480.506    -3653357.201    20606199.392    20606198.670         253.000
       201.000
 91  3 18  2 28  0.0000000  0  4G15G11G21G 2
  -7342710.653    -5721591.686    21719460.391    21719461.894         188.000
       162.000
  -5562395.288    -4334329.666    21383386.663    21383387.283         254.000
       172.000
  -4612203.408    -3593920.612    20620714.543    20620713.765         255.000
       203.000
     49688.139       38717.841    22750292.793    22750292.033         140.000
        99.000
 91  3 18  2 30  0.0000000  0  5G15G11G21G23G 2
  -7675276.381    -5980733.104    21656174.821    21656175.968         193.000
       166.000
  -5286149.214    -4119073.551    21435954.934    21435955.694         244.000
       167.000
  -4526089.413    -3526819.020    20637101.740    20637101.037         255.000
       198.000
        -0.679          -0.775    23350166.409    23350167.198         102.000
        89.000
     89909.562       70058.949    22757946.908    22757946.150         142.000
        99.000
 91  3 18  2 32  0.0000000  0  4G11G15G21G 2
  -5001515.928    -3897280.978    21490118.491    21490119.063         248.000
       166.000
  -8001479.937    -6234917.053    21594099.828    21594100.795         203.000
       173.000
  -4430195.514    -3452098.288    20655350.980    20655350.769         255.000
       200.000
    140350.208      109363.433    22767545.408    22767544.562         143.000
        97.000
 91  3 18  2 34  0.0000000  0  5G15G11G12G21G 2
  -8321185.934    -6484037.823    21533261.207    21533262.011         213.000
       178.000
  -4708610.543    -3669043.034    21545856.596    21545857.235         248.000
       165.000
         0.281          -0.378    23366148.327    23366149.976         101.000
        74.000
  -4324576.741    -3369798.091    20675449.574    20675449.498         254.000
       199.000
    200974.928      156603.315    22779082.017    22779081.229         150.000
       100.000
 91  3 18  2 36  0.0000000  0  5G15G11G12G21G 2
  -8634258.129    -6727989.864    21473685.384    21473686.026         209.000
       178.000
  -4407546.025    -3434447.417    21603147.280    21603147.978         234.000
       160.000
   -267594.940     -208515.431    23315226.381    23315227.688         104.000
        77.000
  -4209297.744    -3279969.991    20697386.427    20697386.068         253.000
       194.000
    271744.015      211747.263    22792549.503    22792548.771         146.000
        93.000
 91  3 18  2 38  0.0000000  0  7G15G23G11G12G21G 2G 6
  -8940561.709    -6966667.628    21415397.367    21415398.109         194.000
       171.000
        -0.230          -0.133    23653962.532    23653963.689          95.000
        85.000
  -4098437.972    -3193582.823    21661967.718    21661968.217         216.000
       151.000
   -525829.203     -409736.987    23266085.934    23266087.384         107.000
        78.000
  -4084430.307    -3182671.393    20721148.219    20721148.333         237.000
       189.000
    352613.551      274762.524    22807938.303    22807937.661         138.000
        94.000
        -0.077          -0.779    24337316.432    24337318.887          69.000
        64.000
 91  3 18  2 40  0.0000000  0  6G15G 2G23G11G12G21
  -9239963.887    -7199968.588    21358423.561    21358424.307         209.000
       177.000
    443530.845      345607.303    22825239.141    22825238.661         138.000
        94.000
    408608.525      318395.844    23731718.195    23731719.461          91.000
        74.000
  -3781415.973    -2946554.425    21722296.418    21722297.282         222.000
       151.000
   -774533.372     -603532.189    23218758.761    23218760.133         106.000
        80.000
  -3950044.313    -3077955.107    20746721.135    20746721.162         247.000
       193.000
 91  3 18  2 42  0.0000000  0  6G15G 2G23G11G12G21
  -9532330.880    -7427786.757    21302787.733    21302788.434         212.000
       179.000
    544434.609      424233.254    22844440.871    22844440.567         143.000
        97.000
    820733.515      639531.275    23810143.148    23810144.804          88.000
        74.000
  -3456600.975    -2693453.500    21784107.797    21784109.057         214.000
       147.000
  -1013551.152     -789779.555    23173274.959    23173276.602         112.000
        86.000
  -3806220.368    -2965885.167    20774090.404    20774090.715         236.000
       186.000
 91  3 18  2 44  0.0000000  0  6G23G11G12G15G 2G21
   1236236.893      963299.429    23889211.354    23889213.568          77.000
        78.000
  -3124120.459    -2434379.124    21847377.779    21847379.438         211.000
       144.000
  -1242729.774     -968360.455    23129664.045    23129665.347         116.000
        85.000
  -9817534.298    -7650022.835    21248515.005    21248515.740         215.000
       182.000
    655260.618      510591.154    22865530.371    22865529.978         139.000
        95.000
  -3653038.504    -2846522.694    20803239.921    20803240.245         240.000
       188.000
 91  3 18  2 46  0.0000000  0  6G15G 2G21G23G11G12
 -10095441.383    -7866573.356    21195630.781    21195631.311         221.000
       188.000
    775937.452      604624.517    22888494.729    22888494.435         132.000
        91.000
  -3490584.447    -2719935.274    20834154.047    20834154.408         237.000
       183.000
   1654981.890     1289593.855    23968896.753    23968898.631          81.000
        74.000
  -2784106.001    -2169434.132    21912081.401    21912083.450         204.000
       141.000
  -1461924.070    -1139161.840    23087953.046    23087954.834         115.000
        85.000
 91  3 18  2 48  0.0000000  0  6G15G 2G23G11G12G21
 -10365927.928    -8077342.086    21144158.841    21144159.374         231.000
       195.000
    906387.800      706274.752    22913318.067    22913317.697         129.000
        90.000
   2076827.218     1618303.357    24049172.461    24049174.112          83.000
        68.000
  -2436692.060    -1898722.239    21978192.350    21978194.248         201.000
       137.000
  -1670995.242    -1302075.966    23048169.418    23048171.290         115.000
        82.000
  -3318951.888    -2586195.798    20866814.806    20866815.135         243.000
       185.000
 91  3 18  2 50  0.0000000  0  5G15G21G11G 2G12
 -10628866.457    -8282229.658    21094123.571    21094124.271         234.000
       199.000
  -3138232.199    -2445375.230    20901204.719    20901204.836         243.000
       180.000
  -2082015.703    -1622350.441    22045684.474    22045686.159         195.000
       135.000
   1046524.904      815471.947    22939985.904    22939985.511         132.000
        90.000
  -1869802.361    -1456990.850    23010337.791    23010339.699         116.000
        81.000
 91  3 18  2 52  0.0000000  0  5G15G 2G11G21G12
 -10884131.735    -8481137.381    21045548.027    21045548.665         239.000
       203.000
   1196260.996      932148.989    22968479.980    22968479.788         129.000
        89.000
  -1720219.937    -1340431.364    22114531.711    22114533.422         191.000
       132.000
  -2948525.500    -2297552.169    20937304.729    20937305.288         237.000
       179.000
  -2058213.052    -1603802.121    22974482.815    22974483.896         118.000
        81.000
 91  3 18  2 54  0.0000000  0  6G23G21G11G 2G12G15
        -0.215          -0.489    24293279.856    24293282.461          67.000
        61.000
  -2749932.655    -2142804.343    20975095.614    20975095.943         232.000
       176.000
  -1351446.574    -1053075.214    22184706.647    22184708.276         183.000
       125.000
   1355503.783     1056234.863    22998782.365    22998782.153         127.000
        90.000
  -2236117.274    -1742430.085    22940629.458    22940631.399         118.000
        85.000
 -11131605.338    -8673973.669    20998455.196    20998455.743         244.000
       211.000
 91  3 18  2 56  0.0000000  0  6G21G 2G23G11G12G15
  -2542559.885    -1981215.170    21014557.380    21014557.687         228.000
       172.000
   1524150.015     1187647.702    23030874.535    23030874.340         125.000
        93.000
    432897.213      337320.723    24375658.254    24375661.069          72.000
        59.000
   -975843.922     -760398.320    22256181.952    22256183.617         182.000
       123.000
  -2403385.202    -1872766.807    22908798.229    22908799.401         125.000
        88.000
 -11371164.701    -8860643.346    20952868.572    20952869.124         244.000
       210.000
 91  3 18  2 58  0.0000000  0  5G21G 2G11G12G15
  -2326516.432    -1812869.660    21055669.054    21055669.451         229.000
       173.000
   1702091.420     1326302.928    23064736.019    23064735.851         126.000
        91.000
   -593557.815     -462513.268    22328928.802    22328930.478         176.000
       120.000
  -2559914.284    -1994736.434    22879011.114    22879011.856         131.000
        92.000
 -11602694.967    -9041057.099    20908810.144    20908810.913         244.000
       212.000
 91  3 18  3  0  0.0000000  0  5G 2G11G21G12G15
   1889217.510     1472115.946    23100344.418    23100344.185         121.000
        87.000
   -204739.183     -159537.603    22402918.249    22402920.261         170.000
       119.000
  -2101912.964    -1637853.462    21098409.409    21098409.638         226.000
       176.000
  -2705601.921    -2108258.775    22851287.110    22851287.982         129.000
        93.000
 -11826079.340    -9215123.328    20866301.865    20866302.796         249.000
       217.000
 91  3 18  3  2  0.0000000  0  5G11G12G21G 2G15
    190458.829      148408.581    22478122.187    22478124.278         164.000
       118.000
  -2840350.894    -2213258.270    22825645.557    22825646.489         132.000
        94.000
  -1868866.809    -1456259.229    21142756.687    21142757.008         219.000
       169.000
   2085410.114     1624993.396    23137678.636    23137678.243         119.000
        85.000
 -12041203.627    -9382752.483    20825365.033    20825365.803         252.000
       216.000
 91  3 18  3  4  0.0000000  0  5G11G21G 2G23G15
    591882.962      461206.546    22554510.694    22554512.826         161.000
       114.000
  -1627494.784    -1268177.194    21188688.264    21188688.649         214.000
       164.000
   2290547.343     1784840.155    23176715.292    23176715.109         117.000
        85.000
        -0.834          -0.119    24709547.154    24709549.964          76.000
        52.000
 -12247959.976    -9543861.253    20786020.574    20786021.309         253.000
       219.000
 91  3 18  3  6  0.0000000  0  5G11G12G21G 2G15
    999374.428      778732.401    22632053.599    22632055.658         151.000
       106.000
        -0.631          -0.236    22780672.578    22780673.421         134.000
        94.000
  -1377918.693    -1073702.656    21236181.337    21236181.778         214.000
       168.000
   2504501.971     1951558.005    23217429.485    23217429.111         116.000
        82.000
 -12446242.739    -9698367.219    20748288.511    20748289.155         252.000
       216.000
 91  3 18  3  8  0.0000000  0  4G21G 2G15G11
  -1120262.929     -872932.365    21285211.950    21285212.422         214.000
       166.000
   2727140.161     2125041.993    23259796.536    23259796.280         116.000
        82.000
 -12635944.116    -9846185.843    20712189.071    20712189.705         255.000
       228.000
   1412775.664     1100863.363    22710721.424    22710723.108         150.000
       101.000
 91  3 18  3 10  0.0000000  0  5G21G15G 2G11G12
   -854653.080     -665963.592    21335755.703    21335756.212         213.000
       162.000
 -12816967.166    -9987242.343    20677741.239    20677741.697         255.000
       231.000
   2958327.050     2305187.446    23303790.020    23303789.765         115.000
        77.000
   1831924.962     1427472.840    22790482.947    22790485.060         145.000
       101.000
        -0.158          -0.061    22744210.868    22744212.100         136.000
        96.000
 91  3 18  3 12  0.0000000  0  5G21G15G 2G11G12
   -581217.525     -452897.236    21387788.984    21387789.525         203.000
       149.000
 -12989213.236   -10121459.697    20644963.613    20644963.968         255.000
       230.000
   3197920.295     2491882.432    23349383.952    23349384.012         117.000
        83.000
   2256662.789     1758437.537    22871307.920    22871309.823         142.000
        99.000
    -78873.404      -61460.312    22729202.379    22729203.610         137.000
        97.000
 91  3 18  3 14  0.0000000  0  5G 2G11G12G21G15
   3445776.390     2685017.300    23396549.115    23396549.209         111.000
        82.000
   2686822.299     2093626.346    22953164.778    22953166.914         137.000
        97.000
   -146385.002     -114067.077    22716355.557    22716356.888         140.000
        97.000
   -300088.121     -233835.491    21441286.198    21441287.020         197.000
       151.000
 -13152587.749   -10248764.489    20613874.524    20613874.856         255.000
       233.000
 91  3 18  3 16  0.0000000  0  5G21G15G 2G11G12
    -11397.728       -8882.330    21496222.428    21496223.109         190.000
       142.000
 -13306999.268   -10369084.605    20584490.537    20584490.736         255.000
       230.000
   3701743.363     2884471.719    23445258.107    23445258.327         103.000
        76.000
   3122241.814     2432914.421    23036022.413    23036024.198         130.000
        91.000
   -202491.173     -157785.942    22705678.691    22705680.011         138.000
        95.000
 91  3 18  3 18  0.0000000  0  5G21G 2G11G12G15
    284719.607      221858.195    21552571.897    21552572.763         200.000
       151.000
   3965668.429     3090126.483    23495482.450    23495482.591         102.000
        72.000
   3562753.841     2776170.453    23119849.147    23119851.055         127.000
        90.000
   -247156.828     -192589.991    22697178.868    22697179.985         145.000
        96.000
 -13452362.529   -10482354.813    20556828.915    20556829.217         255.000
       236.000
 91  3 18  3 20  0.0000000  0  6G21G11G12G15G 2G14
    588126.711      458278.973    21610308.633    21610309.457         186.000
       142.000
   4008192.041     3123265.239    23204613.024    23204615.188         123.000
        88.000
   -280355.532     -218459.476    22690861.595    22690862.873         143.000
        98.000
 -13588592.077   -10588507.808    20530905.254    20530905.724         255.000
       237.000
   4237394.086     3301859.803    23547190.857    23547191.501         105.000
        76.000
         0.384          -0.141    24897518.053    24897520.200          80.000
        66.000
 91  3 18  3 22  0.0000000  0  6G21G11G12G15G 2G14
    898685.450      700272.904    21669405.906    21669406.655         176.000
       136.000
   4458388.525     3474067.773    23290282.574    23290284.582         118.000
        84.000
   -302065.094     -235376.122    22686730.644    22686731.811         142.000
        97.000
 -13715610.200   -10687482.742    20506734.464    20506734.734         255.000
       236.000
   4516761.258     3519548.106    23600353.004    23600353.583         102.000
        75.000
   -465683.854     -362872.304    24808901.987    24808904.035          66.000
        46.000
 91  3 18  3 24  0.0000000  0  5G21G11G12G15G 2
   1216253.677      947728.339    21729837.400    21729838.178         180.000
       136.000
   4913173.164     3828445.648    23376825.251    23376826.943         114.000
        83.000
   -312272.265     -243329.063    22684787.727    22684788.907         147.000
       101.000
 -13833342.376   -10779222.221    20484330.893    20484331.116         255.000
       238.000
   4803603.047     3743060.555    23654937.495    23654938.365          96.000
        74.000
 91  3 18  3 26  0.0000000  0  5G 2G11G12G21G15
   5097753.130     3972267.826    23710912.967    23710913.953         106.000
        70.000
   5372376.973     4186267.280    23464208.123    23464209.956         110.000
        82.000
   -310973.845     -242317.694    22685035.108    22685036.364         147.000
       102.000
   1540692.518     1200537.541    21791576.188    21791577.190         175.000
       134.000
 -13941712.833   -10863665.991    20463708.105    20463708.191         255.000
       242.000
 91  3 18  3 28  0.0000000  0  5G21G15G 2G11G12
   1871857.484     1458587.531    21854595.207    21854596.288         172.000
       129.000
 -14040658.738   -10940766.982    20444879.481    20444879.718         255.000
       241.000
   5399038.678     4207034.798    23768246.211    23768247.889          95.000
        74.000
   5835828.896     4547399.000    23552399.995    23552401.806         107.000
        76.000
   -298172.837     -232343.860    22687471.822    22687473.199         144.000
        99.000
 91  3 18  3 30  0.0000000  0  6G21G15G11G 2G12G14
   2209605.089     1721767.239    21918866.650    21918868.011         167.000
       127.000
 -14130115.775   -11010473.550    20427856.221    20427856.358         255.000
       243.000
   6303355.426     4911705.747    23641367.234    23641368.640         106.000
        73.000
   5707288.987     4447229.194    23826904.856    23826906.411          91.000
        70.000
   -273878.742     -213412.626    22692094.130    22692095.418         143.000
        99.000
        -0.615          -0.265    24456864.517    24456867.568          90.000
        71.000
 91  3 18  3 32  0.0000000  0  6G21G15G13G11G 2G14
   2553791.063     1989963.594    21984363.562    21984364.820         157.000
       118.000
 -14210024.830   -11072740.457    20412650.165    20412650.278         255.000
       243.000
        -0.424          -0.043    24815632.899    24815635.658          71.000
        34.000
   6774786.405     5279055.170    23731076.984    23731078.465          98.000
        73.000
   6022327.028     4692713.049    23886854.971    23886856.273          83.000
        63.000
   -458731.071     -357452.613    24369570.998    24369573.903          82.000
        79.000
 91  3 18  3 34  0.0000000  0  6G21G15G11G 2G12G14
   2904269.556     2263063.464    22051057.540    22051059.057         158.000
       123.000
 -14280335.513   -11127528.546    20399270.844    20399271.135         255.000
       242.000
   7249949.037     5649312.228    23821497.174    23821498.415          90.000
        70.000
   6343974.531     4943347.494    23948062.287    23948064.167          87.000
        69.000
         0.094           0.465    22707882.605    22707883.747         140.000
       100.000
   -915720.700     -713548.693    24282608.592    24282611.910          79.000
        67.000
 91  3 18  3 36  0.0000000  0  6G21G15G11G 2G12G14
   3260894.105     2540952.439    22118921.127    22118922.514         157.000
       118.000
 -14340993.072   -11174794.039    20387728.052    20387728.237         255.000
       235.000
   7728669.519     6022341.475    23912593.970    23912595.372          90.000
        69.000
   6672047.067     5198988.362    24010492.701    24010494.035          92.000
        65.000
     58617.493       45676.061    22719037.554    22719038.429         143.000
        98.000
  -1370852.479    -1068197.267    24196000.150    24196003.707          82.000
        74.000
 91  3 18  3 38  0.0000000  0  6G21G15G 2G11G12G14
   3623517.537     2823515.532    22187926.374    22187928.128         151.000
       114.000
 -14391953.386   -11214503.017    20378030.351    20378030.547         255.000
       252.000
   7006361.892     5459492.209    24074111.571    24074113.528          77.000
        68.000
   8210775.530     6398008.539    24004335.485    24004337.176          87.000
        66.000
    128601.940      100209.308    22732355.062    22732356.124         138.000
        98.000
  -1824006.441    -1421304.401    24109768.606    24109771.870          91.000
        82.000
 91  3 18  3 40  0.0000000  0  6G21G 2G11G15G14G12
   3991990.816     3110636.543    22258045.470    22258047.467         148.000
       112.000
   7346738.058     5724720.394    24138882.954    24138884.940          76.000
        65.000
   8696093.520     6776178.885    24096688.393    24096689.646          87.000
        64.000
 -14433179.888   -11246627.566    20370185.128    20370185.363         255.000
       243.000
  -2275063.515    -1772777.264    24023934.946    24023938.177          93.000
        80.000
    209901.817      163559.484    22747826.238    22747827.385         139.000
        98.000
 91  3 18  3 42  0.0000000  0  7G13G21G 2G14G11G12G15
        -0.964          -0.813    24362897.608    24362899.581          82.000
        40.000
   4366169.960     3402204.300    22329249.723    22329251.731         144.000
       111.000
   7692985.260     5994523.535    24204771.426    24204773.440          80.000
        62.000
  -2723905.795    -2122525.397    23938524.042    23938527.150          98.000
        86.000
   9184451.213     7156717.494    24189619.513    24189620.889          73.000
        57.000
    302462.244      235684.743    22765439.762    22765440.713         139.000
        96.000
 -14464636.912   -11271139.857    20364199.373    20364199.624         255.000
       247.000
 91  3 18  3 44  0.0000000  0  4G12G 2G21G15
    406215.892      316531.646    22785183.397    22785184.561         138.000
        95.000
   8044916.394     6268756.454    24271741.098    24271742.578          88.000
        58.000
   4745904.465     3698101.543    22401510.256    22401512.524         139.000
       110.000
 -14486293.074   -11288014.675    20360078.212    20360078.412         255.000
       247.000
 91  3 18  3 46  0.0000000  0  4G12G 2G21G15
    521092.222      406046.074    22807043.305    22807044.053         136.000
        93.000
   8402337.341     6547266.528    24339755.861    24339757.300          87.000
        54.000
   5131043.769     3998209.501    22474800.609    22474802.742         136.000
       104.000
 -14498124.358   -11297233.750    20357826.652    20357826.886         255.000
       246.000
 91  3 18  3 48  0.0000000  0  5G12G21G13G15G 2
    647009.780      504163.736    22831004.587    22831005.487         132.000
        92.000
   5521441.548     4302415.197    22549091.330    22549093.375         134.000
       100.000
        -0.853          -0.633    24097988.299    24097990.289          73.000
        45.000
 -14500107.114   -11298778.526    20357449.239    20357449.415         255.000
       249.000
   8765055.769     6829903.097    24408779.910    24408781.806          84.000
        61.000
 91  3 18  3 50  0.0000000  0  4G12G15G13G14
    783881.730      610817.384    22857050.320    22857051.222         134.000
        92.000
 -14492226.052   -11292636.931    20358948.549    20358948.579         255.000
       241.000
   -457029.068     -356125.383    24011017.899    24011019.698          78.000
        45.000
        -0.432          -0.448    23601556.854    23601560.743         108.000
        93.000
 91  3 18  3 52  0.0000000  0  5G12G13G15G21G14
    931615.877      725934.674    22885163.430    22885164.317         135.000
        93.000
   -910243.756     -709278.815    23924773.389    23924774.731          75.000
        45.000
 -14474476.269   -11278806.325    20362326.520    20362326.638         255.000
       238.000
        -0.176          -0.123    22700560.522    22700563.273         124.000
        95.000
   -435935.935     -339690.043    23518600.812    23518604.458         113.000
        96.000
 91  3 18  3 54  0.0000000  0  5G12G11G21G14G15
   1090111.588      849437.547    22915324.499    22915325.392         138.000
        93.000
        -0.634          -0.912    24757504.440    24757505.658          61.000
        51.000
    405279.587      315802.233    22777682.920    22777685.659         119.000
        93.000
   -868924.650     -677083.630    23436205.529    23436209.491         116.000
       100.000
 -14446848.757   -11257277.966    20367583.521    20367583.517         255.000
       246.000
 91  3 18  3 56  0.0000000  0  5G 2G12G15G21G14
        -0.729          -0.848    24694223.827    24694227.115          77.000
        61.000
   1259262.438      981243.498    22947512.658    22947513.706         134.000
        93.000
 -14409344.855   -11228054.063    20374720.282    20374720.259         255.000
       247.000
    815221.819      635236.863    22855693.022    22855695.996         117.000
        90.000
  -1298841.387    -1012083.084    23354394.639    23354398.248         123.000
       100.000
 91  3 18  3 58  0.0000000  0  4G15G12G13G14
 -14361970.898   -11191139.692    20383735.489    20383735.586         255.000
       245.000
   1438955.498     1121263.899    22981707.363    22981708.127         135.000
        89.000
         0.289           0.385    23670755.446    23670755.929          92.000
        50.000
  -1725562.371    -1344592.423    23273192.053    23273195.532         124.000
       102.000
 91  3 18  4  0  0.0000000  0  4G14G13G12G15
  -2148966.150    -1674517.400    23192620.760    23192624.217         126.000
       103.000
   -436052.676     -339780.228    23587776.348    23587776.886          84.000
        51.000
   1629073.220     1269408.152    23017884.961    23017885.857         132.000
        89.000
 -14304734.474   -11146539.773    20394627.033    20394627.262         255.000
       245.000
 91  3 18  4  2  0.0000000  0  5G14G13G21G12G15
  -2568926.418    -2001759.289    23112705.294    23112708.752         134.000
       110.000
   -867334.112     -675843.596    23505706.358    23505706.466          89.000
        53.000
        -0.250          -0.382    23094765.767    23094768.538         105.000
        80.000
   1829487.677     1425575.747    23056022.390    23056022.892         131.000
        86.000
 -14237651.638   -11094267.598    20407392.754    20407392.795         255.000
       246.000
 91  3 18  4  4  0.0000000  0  6G14G13G21G12G 2G15
  -2985316.144    -2326218.460    23033468.675    23033472.139         142.000
       115.000
  -1293646.930    -1008034.863    23424581.129    23424581.293          93.000
        55.000
    427125.083      332824.443    23176045.131    23176047.975         101.000
        78.000
   2040068.257     1589665.107    23096093.975    23096094.331         127.000
        84.000
         0.098           0.394    24992841.004    24992846.839          65.000
        40.000
 -14160743.327   -11034339.174    20422028.018    20422028.127         255.000
       243.000
 91  3 18  4  6  0.0000000  0  4G21G14G13G15
    858178.795      668709.885    23258072.345    23258075.569          94.000
        77.000
  -3398011.816    -2647799.087    22954935.107    22954938.322         147.000
       115.000
  -1714796.836    -1336203.391    23344439.081    23344438.928          98.000
        57.000
 -14074035.670   -10966775.289    20438528.424    20438528.605         255.000
       242.000
 91  3 18  4  8  0.0000000  0  5G15G14G13G21G12
 -13977558.191   -10891598.731    20456887.872    20456888.334         255.000
       240.000
  -3806887.690    -2966403.160    22877128.130    22877131.051         149.000
       114.000
  -2130588.550    -1660196.429    23265316.042    23265316.065          97.000
        58.000
   1293017.347     1007544.560    23340820.219    23340823.185          95.000
        76.000
        -0.525          -0.552    23181935.896    23181936.194         123.000
        83.000
 91  3 18  4 10  0.0000000  0  5G15G14G13G21G12
 -13871347.103   -10808837.019    20477099.388    20477099.887         255.000
       239.000
  -4211819.601    -3281934.208    22800071.903    22800074.863         153.000
       117.000
  -2540824.907    -1979860.742    23187250.048    23187249.878          97.000
        57.000
   1731495.166     1349214.652    23424260.303    23424263.756          92.000
        71.000
    240235.869      187196.892    23227651.073    23227651.379         122.000
        81.000
 91  3 18  4 12  0.0000000  0  4G15G14G13G12
 -13755441.905   -10718521.084    20499155.197    20499155.651         255.000
       236.000
  -4612680.928    -3594293.333    22723790.164    22723793.278         160.000
       125.000
  -2945310.688    -2295043.962    23110279.150    23110278.646         109.000
        62.000
    490057.157      381862.991    23275190.490    23275190.539         123.000
        80.000
 91  3 18  4 14  0.0000000  0  5G15G14G13G21G12
 -13629890.403   -10620688.722    20523046.788    20523047.181         255.000
       231.000
  -5009346.657    -3903383.188    22648307.117    22648309.837         168.000
       128.000
  -3343850.692    -2605594.409    23034439.636    23034438.594         113.000
        63.000
        -0.575          -0.967    23593109.642    23593113.546          84.000
        65.000
    749308.528      583876.977    23324524.401    23324524.520         120.000
        80.000
 91  3 18  4 16  0.0000000  0  5G15G14G13G21G12
 -13494740.811   -10515377.192    20548764.792    20548765.184         255.000
       231.000
  -5401690.271    -4209104.919    22573645.952    22573648.956         168.000
       134.000
  -3736246.523    -2911357.315    22959768.790    22959768.161         111.000
        64.000
    448540.996      349511.091    23678464.720    23678469.091          78.000
        65.000
   1017830.573      793115.115    23375622.190    23375622.579         117.000
        79.000
 91  3 18  4 18  0.0000000  0  4G15G14G13G12
 -13350050.642   -10402631.531    20576298.368    20576298.805         255.000
       228.000
  -5789587.409    -4511361.844    22499831.274    22499833.869         174.000
       135.000
  -4122302.581    -3212180.169    22886304.637    22886304.053         114.000
        65.000
   1295454.991     1009445.797    23428452.363    23428452.571         112.000
        76.000
 91  3 18  4 20  0.0000000  0  4G15G14G13G12
 -13195879.930   -10282498.810    20605636.341    20605636.813         255.000
       226.000
  -6172911.888    -4810055.882    22426886.845    22426889.281         179.000
       133.000
  -4501825.069    -3507911.785    22814083.616    22814083.014         120.000
        64.000
   1582011.857     1232736.707    23482982.328    23482982.755         105.000
        75.000
 91  3 18  4 22  0.0000000  0  5G15G14G13G21G12
 -13032293.498   -10155029.347    20636766.172    20636766.754         255.000
       225.000
  -6551537.976    -5105088.434    22354836.113    22354838.282         187.000
       137.000
  -4874618.084    -3798399.764    22743143.502    22743142.864         122.000
        68.000
        -0.208          -0.395    23937931.363    23937936.904          74.000
        62.000
   1877326.352     1462851.634    23539179.128    23539179.583         108.000
        75.000
 91  3 18  4 24  0.0000000  0  4G15G14G13G21
 -12859359.873   -10020275.540    20669674.236    20669674.441         255.000
       221.000
  -6925340.690    -5396362.709    22283703.430    22283705.433         188.000
       140.000
  -5240486.762    -4083492.089    22673520.834    22673520.365         124.000
        72.000
    459993.857      358435.125    24025467.320    24025472.084          72.000
        54.000
 91  3 18  4 26  0.0000000  0  3G15G14G13
 -12677155.478    -9878297.919    20704346.371    20704346.801         255.000
       221.000
  -7294195.525    -5683781.405    22213512.210    22213514.109         194.000
       147.000
  -5599239.807    -4363039.801    22605252.332    22605251.722         128.000
        73.000
 91  3 18  4 28  0.0000000  0  4G12G15G14G13
        -0.029           0.020    23717428.278    23717428.680         100.000
        69.000
 -12485757.006    -9729155.949    20740768.079    20740768.351         255.000
       219.000
  -7657977.590    -5967247.075    22144286.003    22144287.812         196.000
       149.000
  -5950684.725    -4636892.645    22538374.283    22538373.695         130.000
        73.000
 91  3 18  4 30  0.0000000  0  4G14G13G12G15
  -8016562.928    -6246663.644    22076049.117    22076050.801         205.000
       156.000
  -6294630.947    -4904902.635    22472923.484    22472922.605         136.000
        74.000
    328540.859      256005.518    23779947.746    23779948.538          91.000
        68.000
 -12285248.501    -9572915.777    20778923.788    20778924.154         255.000
       219.000
 91  3 18  4 32  0.0000000  0  4G14G13G15G12
  -8369828.641    -6521935.150    22008824.582    22008826.008         206.000
       157.000
  -6630887.380    -5166920.467    22408935.775    22408935.148         138.000
        77.000
 -12075715.145    -9409643.155    20818796.644    20818797.230         255.000
       214.000
    664921.458      518120.002    23843959.494    23843959.797         101.000
        68.000
 91  3 18  4 34  0.0000000  0  4G12G15G14G13
   1008945.974      786190.063    23909425.573    23909426.509          95.000
        66.000
 -11857250.018    -9239410.389    20860369.092    20860369.509         255.000
       214.000
  -8717649.209    -6792963.978    21942636.262    21942637.719         219.000
       162.000
  -6959269.798    -5422802.327    22346446.532    22346445.550         150.000
        81.000
 91  3 18  4 36  0.0000000  0  4G12G15G14G13
   1360420.865     1060065.713    23976309.884    23976310.930          95.000
        66.000
 -11629948.358    -9062292.230    20903623.145    20903623.541         255.000
       210.000
  -9059903.588    -7059655.564    21877507.346    21877508.808         221.000
       167.000
  -7279593.646    -5672405.473    22285490.868    22285490.126         146.000
        83.000
 91  3 18  4 38  0.0000000  0  3G15G14G13
 -11393910.328    -8878366.505    20948539.739    20948540.099         255.000
       205.000
  -9396469.667    -7321914.845    21813460.962    21813462.395         225.000
       168.000
  -7591674.952    -5915585.760    22226103.874    22226103.120         153.000
        86.000
 91  3 18  4 40  0.0000000  0  3G14G13G15
  -9727224.285    -7579645.511    21750520.309    21750521.671         220.000
       169.000
  -7895332.227    -6152201.829    22168319.960    22168319.257         150.000
        85.000
 -11149239.842    -8687714.478    20995099.195    20995099.622         255.000
       200.000
 91  3 18  4 42  0.0000000  0  3G13G15G14
  -8190387.671    -6382114.820    22112172.418    22112171.594         155.000
        86.000
 -10896042.600    -8490417.935    21043281.127    21043281.476         255.000
       196.000
 -10052049.123    -7832755.175    21688707.616    21688709.027         225.000
       176.000
 91  3 18  4 44  0.0000000  0  4G21G13G15G14
         0.468          -0.083    24923011.434    24923019.728          58.000
        37.000
  -8476667.655    -6605190.149    22057695.097    22057694.289         159.000
        90.000
 -10634426.874    -8286561.470    21093064.800    21093065.254         254.000
       195.000
 -10370824.792    -8081151.716    21628046.646    21628047.932         234.000
       180.000
 91  3 18  4 46  0.0000000  0  5G15G14G13G12G21
 -10364510.108    -8076236.788    21144428.309    21144428.715         245.000
       188.000
 -10683432.219    -8324742.051    21568559.566    21568560.782         238.000
       183.000
  -8753999.522    -6821292.668    22004920.364    22004919.431         163.000
        91.000
        -0.605          -0.869    24330676.006    24330677.826          89.000
        58.000
    480466.143      374387.044    25014442.490    25014450.131          62.000
        38.000
 91  3 18  4 48  0.0000000  0  4G15G14G13G12
 -10086410.707    -7859536.712    21197349.376    21197350.120         242.000
       186.000
 -10989751.756    -8563432.348    21510268.783    21510269.843         241.000
       182.000
  -9022213.980    -7030290.338    21953880.449    21953879.463         160.000
        91.000
    391989.462      305445.296    24405269.999    24405271.620          80.000
        58.000
 91  3 18  4 50  0.0000000  0  4G20G15G14G13
        -0.104          -0.779    24744777.807    24744783.303          61.000
        52.000
  -9800243.406    -7636549.404    21251805.408    21251806.090         234.000
       182.000
 -11289668.054    -8797132.852    21453196.106    21453197.142         238.000
       183.000
  -9281148.246    -7232057.016    21904606.600    21904605.582         159.000
        90.000
 91  3 18  4 52  0.0000000  0  3G15G14G13
  -9506137.472    -7407376.276    21307772.164    21307772.921         234.000
       179.000
 -11583067.728    -9025755.788    21397364.009    21397364.949         252.000
       190.000
  -9530641.356    -7426467.272    21857129.669    21857128.616         168.000
        95.000
 91  3 18  4 54  0.0000000  0  4G15G14G13G20
  -9204217.679    -7172114.611    21365225.911    21365226.838         224.000
       174.000
 -11869835.814    -9249210.747    21342793.268    21342794.062         246.000
       192.000
  -9770533.116    -7613395.687    21811479.587    21811478.473         166.000
        95.000
        -0.720          -0.775    24616155.650    24616162.067          79.000
        57.000
 91  3 18  4 56  0.0000000  0  5G15G14G13G20G12
  -8894612.805    -6930864.243    21424141.952    21424142.977         230.000
       175.000
 -12149859.899    -9467410.771    21289506.089    21289506.687         255.000
       199.000
 -10000671.915    -7792724.447    21767685.547    21767684.400         172.000
        98.000
   -328625.825     -256071.162    24553619.550    24553625.437          64.000
        49.000
        -0.203          -0.535    24714743.367    24714745.943          79.000
        56.000
 91  3 18  4 58  0.0000000  0  4G12G15G14G13
    420116.821      327362.688    24794689.226    24794691.815          69.000
        47.000
  -8577456.077    -6683729.233    21484494.874    21484495.813         222.000
       169.000
 -12423029.782    -9680270.157    21237523.264    21237524.006         255.000
       203.000
 -10220910.077    -7964339.356    21725776.303    21725775.155         175.000
        99.000
 91  3 18  5  0  0.0000000  0  4G14G13G12G15
 -12689233.868    -9887701.428    21186865.919    21186866.552         255.000
       207.000
 -10431099.796    -8128122.782    21685777.945    21685776.647         180.000
       102.000
    845239.451      658626.439    24875588.061    24875591.239          61.000
        50.000
  -8252880.931    -6430813.779    21546259.590    21546260.788         215.000
       165.000
 91  3 18  5  2  0.0000000  0  4G12G14G13G15
   1275156.796      993626.117    24957399.000    24957402.337          65.000
        53.000
 -12948366.385   -10089622.734    21137554.572    21137555.106         255.000
       209.000
 -10631104.768    -8283970.007    21647717.587    21647716.170         179.000
       103.000
  -7921026.030    -6172225.729    21609409.642    21609410.652         211.000
       161.000
 91  3 18  5  4  0.0000000  0  4G12G15G14G13
   1709661.909     1332201.048    25040082.950    25040086.232          62.000
        40.000
  -7582030.099    -5908073.056    21673918.446    21673919.626         209.000
       161.000
 -13200322.595   -10285952.140    21089608.861    21089609.392         255.000
       205.000
 -10820792.658    -8431778.601    21611621.025    21611619.642         181.000
       104.000
 91  3 18  5  6  0.0000000  0  5G15G20G12G14G13
  -7236035.029    -5638466.613    21739759.379    21739760.406         202.000
       153.000
        -0.023          -0.831    24260066.458    24260069.165          74.000
        70.000
   2148547.836     1674189.576    25123601.050    25123603.448          71.000
        36.000
 -13444997.024   -10476607.345    21043048.838    21043049.044         255.000
       205.000
 -11000038.226    -8571451.976    21577512.905    21577511.917         183.000
       106.000
 91  3 18  5  8  0.0000000  0  3G15G14G13
  -6883184.572    -5363518.238    21806904.419    21806905.687         194.000
       152.000
 -13682287.365   -10661508.719    20997893.646    20997894.112         255.000
       213.000
 -11168709.811    -8702883.835    21545415.324    21545414.190         183.000
       107.000
 91  3 18  5 10  0.0000000  0  4G20G15G14G13
        -0.873          -0.896    24152193.822    24152195.418          70.000
        68.000
  -6523625.784    -5083342.721    21875326.343    21875327.632         194.000
       151.000
 -13912095.196   -10840579.582    20954162.519    20954163.049         255.000
       216.000
 -11326695.742    -8825989.785    21515351.669    21515350.510         187.000
       108.000
 91  3 18  5 12  0.0000000  0  3G15G13G14
  -6157504.877    -4798053.829    21944996.950    21944998.060         191.000
       147.000
 -11473885.747    -8940683.673    21487342.594    21487341.671         189.000
       111.000
 -14134319.851   -11013741.477    20911874.538    20911874.827         255.000
       222.000
 91  3 18  5 14  0.0000000  0  4G15G13G20G14
  -5784972.262    -4507768.877    22015887.761    22015888.919         189.000
       142.000
 -11610173.389    -9046882.898    21461408.659    21461407.870         190.000
       110.000
         0.460          -0.346    24050162.557    24050163.433          77.000
        62.000
 -14348868.561   -11180922.373    20871047.337    20871047.647         255.000
       221.000
 91  3 18  5 16  0.0000000  0  3G15G13G14
  -5406177.327    -4212604.314    22087970.223    22087971.514         183.000
       138.000
 -11735459.788    -9144509.636    21437568.297    21437567.637         190.000
       109.000
 -14555647.146   -11342048.725    20831698.771    20831699.194         255.000
       223.000
 91  3 18  5 18  0.0000000  0  3G15G13G14
  -5021272.358    -3912678.438    22161215.205    22161216.548         177.000
       135.000
 -11849652.999    -9233492.019    21415838.577    21415838.094         191.000
       112.000
 -14754566.013   -11497050.386    20793845.825    20793846.207         255.000
       229.000
 91  3 18  5 20  0.0000000  0  3G15G13G14
  -4630411.967    -3608112.082    22235593.492    22235595.005         177.000
       137.000
 -11952662.393    -9313758.786    21396236.158    21396235.774         195.000
       114.000
 -14945535.721   -11645857.663    20757505.249    20757505.570         255.000
       227.000
 91  3 18  5 22  0.0000000  0  4G13G20G15G14
 -12044414.875    -9385253.919    21378775.949    21378775.585         195.000
       115.000
        -0.894          -0.428    23864575.592    23864576.626          76.000
        75.000
  -4233751.208    -3299026.020    22311075.877    22311077.366         169.000
       130.000
 -15128470.106   -11788403.840    20722693.946    20722694.261         255.000
       234.000
 91  3 18  5 24  0.0000000  0  3G13G15G14
 -12124838.094    -9447921.308    21363472.029    21363471.336         191.000
       112.000
  -3831447.183    -2985542.850    22387632.070    22387633.652         162.000
       126.000
 -15303287.679   -11924624.757    20689426.883    20689426.923         255.000
       233.000
 91  3 18  5 26  0.0000000  0  3G13G15G14
 -12193866.113    -9501708.603    21350335.867    21350335.011         197.000
       114.000
  -3423655.502    -2667783.436    22465232.550    22465234.313         149.000
       118.000
 -15469908.792   -12054459.436    20657719.995    20657720.112         255.000
       239.000
 91  3 18  5 28  0.0000000  0  3G15G14G13
  -3010531.857    -2345869.236    22543847.561    22543849.466         151.000
       115.000
 -15628256.697   -12177847.630    20627587.434    20627587.749         255.000
       235.000
 -12251444.311    -9546575.208    21339379.468    21339378.627         200.000
       113.000
 91  3 18  5 30  0.0000000  0  4G15G14G13G18
  -2592236.418    -2019924.718    22623446.441    22623448.577         148.000
       114.000
 -15778256.957   -12294730.993    20599043.385    20599043.650         255.000
       237.000
 -12297520.252    -9582478.054    21330611.076    21330610.267         200.000
       115.000
        -0.093           0.263    25063653.214    25063653.826          82.000
        45.000
 91  3 18  5 32  0.0000000  0  5G15G14G13G20G18
  -2168930.242    -1690076.085    22703999.363    22704001.018         144.000
       110.000
 -15919837.234   -12405053.088    20572101.503    20572101.609         255.000
       243.000
 -12332054.274    -9609388.149    21324039.730    21324039.197         195.000
       115.000
         0.202          -0.041    23669508.852    23669509.559          94.000
        80.000
   -484903.113     -377846.709    24971379.673    24971380.299          79.000
        52.000
 91  3 18  5 34  0.0000000  0  4G14G13G20G15
 -16052931.099   -12508762.280    20546774.350    20546774.438         255.000
       243.000
 -12355008.489    -9627274.940    21319672.009    21319671.517         198.000
       116.000
   -177836.441     -138574.533    23635668.150    23635668.826          94.000
        80.000
  -1740773.171    -1356447.686    22785475.323    22785477.310         140.000
       109.000
 91  3 18  5 36  0.0000000  0  4G14G13G20G15
 -16177474.187   -12605808.713    20523074.423    20523074.529         255.000
       242.000
 -12366356.006    -9636117.279    21317512.725    21317512.270         198.000
       117.000
   -346335.825     -269872.459    23603603.459    23603603.859          93.000
        80.000
  -1307924.398    -1019163.555    22867843.845    22867846.098         131.000
       105.000
 91  3 18  5 38  0.0000000  0  4G20G14G13G15
   -505390.219     -393810.727    23573335.988    23573336.747          90.000
        81.000
 -16293405.748   -12696144.948    20501013.385    20501013.404         255.000
       242.000
 -12366077.910    -9635900.438    21317565.641    21317565.023         199.000
       116.000
   -870546.053     -678349.908    22951074.869    22951077.296         129.000
       102.000
 91  3 18  5 40  0.0000000  0  4G20G14G13G15
   -654899.677     -510311.615    23544885.402    23544886.108          88.000
        83.000
 -16400667.958   -12779725.768    20480601.990    20480602.030         255.000
       245.000
 -12354164.358    -9626617.388    21319832.916    21319832.392         200.000
       115.000
   -428797.391     -334130.580    23035137.519    23035139.493         126.000
        97.000
 91  3 18  5 42  0.0000000  0  3G20G14G15
   -794764.057     -619296.367    23518269.726    23518270.332          89.000
        85.000
 -16499205.514   -12856508.080    20461850.879    20461850.744         255.000
       245.000
     17159.712       13368.068    23120000.379    23120002.731         119.000
        94.000
 91  3 18  5 44  0.0000000  0  4G20G14G13G15
   -924896.180     -720698.439    23493506.588    23493507.450          89.000
        85.000
 -16588969.320   -12926453.952    20444769.254    20444769.265         255.000
       246.000
        -0.558          -0.008    21331012.454    21331011.864         204.000
       117.000
    467161.312      364018.047    23205633.421    23205635.855         117.000
        93.000
 91  3 18  5 46  0.0000000  0  4G20G14G13G15
  -1045207.930     -814448.335    23470612.547    23470613.297          93.000
        87.000
 -16669912.636   -12989526.668    20429366.240    20429366.270         255.000
       248.000
     46818.522       36482.200    21339921.799    21339921.406         200.000
       118.000
    921049.152      717696.132    23292005.787    23292008.774         115.000
        93.000
 91  3 18  5 48  0.0000000  0  4G20G14G13G15
  -1155622.893     -900487.087    23449602.256    23449603.175          97.000
        87.000
 -16741990.629   -13045691.358    20415650.289    20415650.256         255.000
       245.000
    105244.186       82008.149    21351040.070    21351039.967         196.000
       116.000
   1378658.693     1074274.469    23379086.113    23379089.464         103.000
        88.000
 91  3 18  5 50  0.0000000  0  4G20G14G13G15
  -1256062.782     -978751.720    23430488.813    23430489.948          95.000
        89.000
 -16805165.013   -13094918.229    20403628.683    20403628.726         255.000
       248.000
    175249.723      136557.888    21364361.945    21364361.579         202.000
       117.000
   1839830.636     1433628.611    23466845.172    23466847.981         102.000
        87.000
 91  3 18  5 52  0.0000000  0  4G20G14G13G15
  -1346464.960    -1049194.948    23413285.828    23413287.131          97.000
        91.000
 -16859398.031   -13137177.319    20393308.228    20393308.131         255.000
       249.000
    256798.690      200102.301    21379880.328    21379880.017         200.000
       115.000
   2304401.979     1795631.592    23555250.111    23555253.353          98.000
        80.000
 91  3 18  5 54  0.0000000  0  4G20G14G13G15
  -1426771.717    -1111772.459    23398004.794    23398006.104         103.000
        94.000
 -16904660.621   -13172446.899    20384695.032    20384694.932         255.000
       247.000
    349849.963      272610.227    21397587.044    21397586.634         198.000
       115.000
   2772211.737     2160157.880    23644272.441    23644275.767         102.000
        78.000
 91  3 18  5 56  0.0000000  0  4G20G14G13G15
  -1496925.235    -1166438.291    23384655.567    23384657.075         102.000
        91.000
 -16940922.694   -13200703.135    20377794.614    20377794.566         255.000
       246.000
    454353.098      354041.201    21417473.482    21417472.993         202.000
       115.000
   3243099.870     2527082.834    23733879.936    23733883.340          90.000
        74.000
 91  3 18  5 58  0.0000000  0  4G20G13G15G14
  -1556881.152    -1213158.697    23373247.367    23373249.259         102.000
        89.000
    570246.442      444347.685    21439527.096    21439526.870         200.000
       114.000
   3716905.376     2896280.847    23824043.067    23824046.654          88.000
        73.000
 -16968161.701   -13221928.333    20372611.170    20372611.154         255.000
       246.000
 91  3 18  6  0  0.0000000  0  3G20G13G14
  -1606595.251    -1251898.005    23363787.962    23363789.899         104.000
        88.000
    697465.146      543478.432    21463736.737    21463736.362         203.000
       113.000
 -16986356.367   -13236106.075    20369148.944    20369148.926         255.000
       245.000
 91  3 18  6  2  0.0000000  0  3G13G20G14
    835939.815      651380.900    21490087.489    21490087.144         204.000
       113.000
  -1646033.042    -1282629.213    23356283.445    23356285.554         105.000
        88.000
 -16995490.682   -13243223.543    20367410.614    20367410.558         255.000
       243.000
 91  3 18  6  4  0.0000000  0  3G20G13G14
  -1675170.203    -1305334.544    23350739.614    23350742.109         104.000
        88.000
    985587.286      767988.855    21518564.736    21518564.567         198.000
       110.000
 -16995553.739   -13243272.542    20367398.475    20367398.485         255.000
       243.000
 91  3 18  6  6  0.0000000  0  3G20G14G13
  -1693982.005    -1319993.282    23347160.045    23347162.405         104.000
        87.000
 -16986537.300   -13236247.207    20369114.557    20369114.636         255.000
       241.000
   1146322.501      893237.190    21549151.562    21549151.242         200.000
       110.000
 91  3 18  6  8  0.0000000  0  4G20G13G14G15
  -1702454.379    -1326594.874    23345547.685    23345549.995         107.000
        88.000
   1318048.342     1027049.375    21581829.954    21581829.778         196.000
       108.000
 -16968435.939   -13222142.429    20372559.231    20372559.384         255.000
       236.000
        -0.873          -0.219    24282125.669    24282131.385          64.000
        59.000
 91  3 18  6 10  0.0000000  0  4G20G14G13G15
  -1700581.381    -1325134.963    23345903.692    23345906.004         106.000
        88.000
 -16941250.636   -13200959.171    20377732.544    20377732.620         255.000
       239.000
   1500664.219     1169347.287    21616580.727    21616580.630         195.000
       108.000
    487972.662      380237.198    24374985.607    24374991.035          82.000
        64.000
 91  3 18  6 12  0.0000000  0  4G20G14G13G15
  -1688361.836    -1315612.398    23348228.443    23348230.380         108.000
        90.000
 -16904986.935   -13172701.687    20384633.220    20384633.385         255.000
       238.000
   1694062.133     1320046.791    21653383.449    21653383.256         199.000
       108.000
    977754.426      761883.482    24468189.592    24468195.653          82.000
        59.000
 91  3 18  6 14  0.0000000  0  3G20G14G13
  -1665804.588    -1298035.374    23352521.011    23352523.093         105.000
        89.000
 -16859651.586   -13137375.399    20393260.267    20393260.468         255.000
       237.000
   1898126.170     1479057.397    21692215.673    21692215.773         194.000
       106.000
 91  3 18  6 16  0.0000000  0  3G20G14G13
  -1632921.455    -1272412.097    23358778.353    23358780.468         103.000
        88.000
 -16805259.053   -13094991.957    20403611.147    20403611.309         255.000
       229.000
   2112736.100     1646285.684    21733054.721    21733054.819         195.000
       106.000
 91  3 18  6 18  0.0000000  0  4G20G13G14G15
  -1589729.456    -1238755.604    23366997.055    23366999.209         100.000
        88.000
   2337764.322     1821632.287    21775876.260    21775876.255         190.000
       103.000
 -16741822.425   -13045561.269    20415683.048    20415683.376         255.000
       231.000
        -0.131          -0.324    24749573.999    24749580.485          68.000
        46.000
 91  3 18  6 20  0.0000000  0  3G13G14G20
   2573077.998     2004994.041    21820654.592    21820654.463         187.000
       101.000
 -16669365.552   -12989101.642    20429471.346    20429471.691         255.000
       231.000
  -1536258.859    -1197089.887    23377171.842    23377173.807          95.000
        84.000
 91  3 18  6 22  0.0000000  0  4G13G20G15G14
   2818532.835     2196256.554    21867363.840    21867363.997         183.000
        97.000
  -1472538.959    -1147437.184    23389296.841    23389298.357         100.000
        84.000
        -0.885          -0.739    24938347.699    24938357.126          64.000
        53.000
 -16587911.284   -12925630.983    20444971.733    20444972.081         255.000
       222.000
 91  3 18  6 24  0.0000000  0  3G14G20G13
 -16497489.166   -12855172.459    20462178.622    20462179.181         255.000
       224.000
  -1398612.734    -1089832.492    23403364.764    23403366.337          99.000
        84.000
   3073988.873     2395312.913    21915975.711    21915975.992         184.000
        97.000
 91  3 18  6 26  0.0000000  0  4G20G14G13G18
  -1314525.618    -1024310.210    23419365.924    23419367.827          93.000
        83.000
 -16398130.978   -12777750.583    20481085.925    20481086.459         255.000
       223.000
   3339290.469     2602040.394    21966461.731    21966462.270         183.000
        96.000
        -0.106          -0.520    22637379.322    22637381.190         162.000
       116.000
 91  3 18  6 28  0.0000000  0  4G20G14G13G18
  -1220329.413     -950910.424    23437290.745    23437292.469          94.000
        82.000
 -16289874.780   -12693395.427    20501686.680    20501687.190         255.000
       218.000
   3614286.317     2816322.121    22018792.250    22018792.986         182.000
        94.000
   -404333.218     -315065.084    22560437.375    22560438.888         173.000
       121.000
 91  3 18  6 30  0.0000000  0  4G20G14G13G18
  -1116083.598     -869680.047    23457128.096    23457129.914          93.000
        80.000
 -16172759.667   -12602137.230    20523973.247    20523973.846         255.000
       215.000
   3898815.232     3038033.569    22072935.873    22072936.356         179.000
        91.000
   -803713.801     -626270.437    22484437.447    22484438.880         179.000
       125.000
 91  3 18  6 32  0.0000000  0  4G20G14G13G18
  -1001853.103     -780668.970    23478865.331    23478866.995          94.000
        82.000
 -16046830.561   -12504010.779    20547936.773    20547937.457         255.000
       205.000
   4192709.329     3267042.763    22128861.485    22128861.806         180.000
        93.000
  -1198001.015     -933506.693    22409406.541    22409407.780         183.000
       127.000
 91  3 18  6 34  0.0000000  0  4G20G14G13G18
   -877709.020     -683933.371    23502489.216    23502490.879          95.000
        83.000
 -15912134.869   -12399053.270    20573568.768    20573569.316         255.000
       204.000
   4495797.793     3503215.676    22186537.316    22186537.535         178.000
        89.000
  -1587051.873    -1236662.981    22335372.451    22335373.739         184.000
       130.000
 91  3 18  6 36  0.0000000  0  4G20G14G13G18
   -743729.864     -579534.262    23527984.728    23527986.641          94.000
        82.000
 -15768726.087   -12287306.616    20600858.805    20600859.625         255.000
       206.000
   4807903.132     3746414.124    22245929.188    22245929.731         173.000
        87.000
  -1970729.086    -1535631.911    22262360.876    22262362.144         192.000
       132.000
 91  3 18  6 38  0.0000000  0  4G20G14G13G18
   -599998.497     -467535.861    23555336.199    23555337.767          99.000
        79.000
 -15616657.508   -12168811.644    20629796.538    20629797.247         255.000
       197.000
   5128849.575     3996502.031    22307003.470    22307004.060         170.000
        86.000
  -2348891.740    -1830303.630    22190398.513    22190399.637         199.000
       137.000
 91  3 18  6 40  0.0000000  0  4G20G14G13G18
   -446605.369     -348008.062    23584525.460    23584526.869          98.000
        79.000
 -15455991.189   -12043617.400    20660370.490    20660371.358         255.000
       203.000
   5458451.633     4253334.455    22369725.150    22369725.595         168.000
        84.000
  -2721403.591    -2120572.315    22119511.754    22119512.700         206.000
       141.000
 91  3 18  6 42  0.0000000  0  4G20G13G18G14
   -283646.182     -221027.066    23615535.689    23615537.181         100.000
        81.000
   5796522.492     4516765.861    22434058.021    22434058.716         160.000
        82.000
  -3088125.600    -2406329.734    22049726.894    22049727.770         206.000
       144.000
 -15286789.270   -11911771.948    20692568.640    20692569.633         255.000
       198.000
 91  3 18  6 44  0.0000000  0  4G20G13G18G14
   -111220.439      -86669.414    23648347.248    23648349.055          98.000
        81.000
   6142872.643     4786648.988    22499966.542    22499967.134         162.000
        81.000
  -3448924.327    -2687471.750    21981069.347    21981070.346         206.000
       142.000
 -15109117.596   -11773326.831    20726378.702    20726379.738         255.000
       193.000
 91  3 18  6 46  0.0000000  0  4G20G13G18G14
     70565.514       54981.727    23682939.994    23682941.747          92.000
        78.000
   6497307.691     5062831.752    22567413.592    22567414.285         157.000
        79.000
  -3803663.405    -2963891.988    21913564.793    21913565.727         211.000
       144.000
 -14923047.078   -11628337.322    20761787.176    20761788.342         255.000
       192.000
 91  3 18  6 48  0.0000000  0  3G14G13G18
 -14728650.943   -11476860.147    20798779.690    20798781.008         255.000
       198.000
   6859630.151     5345160.582    22636361.374    22636362.161         149.000
        76.000
  -4152210.482    -3235487.075    21847238.398    21847239.500         224.000
       153.000
 91  3 18  6 50  0.0000000  0  3G14G13G18
 -14526004.729   -11318954.294    20837342.356    20837343.576         255.000
       195.000
   7229639.330     5633478.968    22706772.145    22706772.980         143.000
        71.000
  -4494431.869    -3502152.727    21782115.494    21782116.434         226.000
       155.000
 91  3 18  6 52  0.0000000  0  3G14G13G18
 -14315188.231   -11154681.909    20877459.553    20877460.761         255.000
       187.000
   7607132.384     5927628.647    22778607.319    22778608.326         146.000
        72.000
  -4830199.604    -3763789.559    21718220.817    21718221.754         229.000
       158.000
 91  3 18  6 54  0.0000000  0  4G20G14G13G18
        -0.288          -0.445    23838682.948    23838684.523          79.000
        72.000
 -14096285.219   -10984108.585    20919115.603    20919117.118         255.000
       188.000
   7991904.198     6227450.039    22851827.601    22851828.858         145.000
        72.000
  -5159384.305    -4020296.850    21655578.992    21655579.680         249.000
       167.000
 91  3 18  6 56  0.0000000  0  4G20G14G13G18
    226812.688      176736.776    23881844.312    23881845.883          86.000
        75.000
 -13869381.362   -10807301.058    20962294.532    20962296.170         255.000
       180.000
   8383748.108     6532781.887    22926393.840    22926395.242         144.000
        71.000
  -5481859.300    -4271575.944    21594213.971    21594214.653         247.000
       168.000
 91  3 18  6 58  0.0000000  0  4G20G14G13G18
    462242.771      360188.647    23926645.321    23926646.746          91.000
        71.000
 -13634565.939   -10624328.396    21006978.628    21006980.359         253.000
       175.000
   8782454.600     6843461.216    23002265.916    23002267.662         133.000
        67.000
  -5797499.487    -4517529.153    21534149.278    21534150.198         243.000
       170.000
 91  3 18  7  0  0.0000000  0  3G14G13G18
 -13391930.527   -10435262.108    21053150.906    21053152.579         255.000
       175.000
   9187811.117     7159322.688    23079403.152    23079405.359         127.000
        66.000
  -6106182.028    -4758060.999    21475409.074    21475409.740         253.000
       174.000
 91  3 18  7  2  0.0000000  0  3G14G13G18
 -13141569.481   -10240176.163    21100793.455    21100795.266         249.000
       169.000
   9599604.700     7480199.767    23157765.799    23157768.107         121.000
        63.000
  -6407785.068    -4993076.409    21418015.901    21418016.614         252.000
       174.000
 91  3 18  7  4  0.0000000  0  3G14G13G18
 -12883579.900   -10039145.771    21149887.566    21149889.608         244.000
       168.000
  10017620.740     7805925.731    23237311.918    23237314.481         117.000
        64.000
  -6702190.250    -5222482.973    21361992.436    21361993.137         255.000
       177.000
 91  3 18  7  6  0.0000000  0  4G14G20G13G18
 -12618063.225    -9832249.945    21200413.971    21200416.059         247.000
       168.000
        -0.430          -0.242    24121703.791    24121705.990          73.000
        67.000
  10441642.941     8136331.681    23318001.497    23318004.026         112.000
        60.000
  -6989280.487    -5446189.565    21307360.995    21307361.669         255.000
       182.000
 91  3 18  7  8  0.0000000  0  3G14G13G18
 -12345120.656    -9619567.736    21252353.490    21252355.606         251.000
       169.000
  10871454.670     8471248.726    23399792.579    23399795.676         108.000
        57.000
  -7268941.895    -5664107.652    21254143.236    21254143.938         255.000
       188.000
 91  3 18  7 10  0.0000000  0  3G14G13G18
 -12064857.041    -9401180.929    21305686.145    21305688.467         235.000
       161.000
  11306839.219     8810508.856    23482644.406    23482647.586         110.000
        59.000
  -7541062.331    -5876149.400    21202360.265    21202360.973         255.000
       187.000
 91  3 18  7 12  0.0000000  0  3G14G13G18
 -11777381.155    -9177174.180    21360391.271    21360393.605         234.000
       160.000
  11747575.279     9153938.503    23566514.336    23566517.865         101.000
        57.000
  -7805532.479    -6082229.856    21152033.251    21152033.849         255.000
       194.000
 91  3 18  7 14  0.0000000  0  3G14G13G18
 -11482801.162    -8947631.752    21416448.462    21416450.843         218.000
       153.000
  12193443.685     9501367.385    23651361.229    23651364.753         100.000
        58.000
  -8062246.181    -6282266.484    21103182.188    21103182.808         255.000
       191.000
 91  3 18  7 16  0.0000000  0  4G20G18G14G13
        -0.448          -0.294    24399014.116    24399015.829          73.000
        58.000
  -8311099.760    -6476178.416    21055826.967    21055827.511         255.000
       195.000
 -11181229.675    -8712641.363    21473835.743    21473838.353         221.000
       154.000
  12644225.654     9852625.016    23737142.436    23737146.764          95.000
        53.000
 91  3 18  7 18  0.0000000  0  3G18G14G13
  -8551991.906    -6663886.563    21009986.719    21009987.287         255.000
       206.000
 -10872779.922    -8472291.376    21532532.139    21532534.962         221.000
       154.000
  13099700.129    10207539.623    23823817.245    23823821.277          92.000
        52.000
 91  3 18  7 20  0.0000000  0  2G18G14
  -8784823.951    -6845314.168    20965680.336    20965680.855         255.000
       202.000
 -10557567.753    -8226672.101    21592515.431    21592518.379         217.000
       151.000
 91  3 18  7 22  0.0000000  0  3G14G18G13
 -10235709.543    -7975873.949    21653763.470    21653766.287         209.000
       144.000
  -9009502.356    -7020388.268    20922925.425    20922926.037         255.000
       205.000
        -0.795          -0.096    23999677.514    23999681.865          80.000
        44.000
 91  3 18  7 24  0.0000000  0  3G13G18G14
    468230.691      364854.978    24088779.161    24088783.986          84.000
        54.000
  -9225933.710    -7189036.120    20881739.901    20881740.558         255.000
       206.000
  -9907325.474    -7719990.750    21716253.257    21716256.116         203.000
       138.000
 91  3 18  7 26  0.0000000  0  3G13G18G14
    940272.253      732679.046    24178606.794    24178611.348          93.000
        46.000
  -9434031.239    -7351190.142    20842140.329    20842140.985         255.000
       206.000
  -9572537.244    -7459117.440    21779961.692    21779964.967         194.000
       135.000
 91  3 18  7 28  0.0000000  0  4G13G14G20G18
   1415907.711     1103303.529    24269117.383    24269121.262          75.000
        42.000
  -9231466.515    -7193348.747    21844865.731    21844869.269         187.000
       132.000
        -0.595          -0.599    24775696.661    24775698.697          70.000
        42.000
  -9633707.163    -7506781.762    20804143.414    20804143.959         255.000
       208.000
 91  3 18  7 30  0.0000000  0  3G13G14G18
   1894917.406     1476557.523    24360269.872    24360274.803          84.000
        49.000
  -8884236.630    -6922780.627    21910941.960    21910945.605         191.000
       133.000
  -9824881.966    -7655749.270    20767764.120    20767764.735         255.000
       214.000
 91  3 18  7 32  0.0000000  0  3G14G13G18
  -8530973.600    -6647511.276    21978166.006    21978169.806         182.000
       126.000
   2377080.236     1852268.308    24452022.800    24452027.936          70.000
        39.000
 -10007476.631    -7798030.716    20733017.318    20733017.977         255.000
       213.000
 91  3 18  7 34  0.0000000  0  3G13G14G18
   2862180.027     2230267.831    24544334.732    24544339.649          76.000
        34.000
  -8171804.431    -6367639.760    22046514.169    22046517.899         174.000
       120.000
 -10181418.519    -7933569.944    20699917.354    20699918.102         255.000
       216.000
 91  3 18  7 36  0.0000000  0  3G13G18G14
   3350002.129     2610388.615    24637164.470    24637169.570          79.000
        41.000
 -10346633.847    -8062309.251    20668478.022    20668478.642         255.000
       218.000
  -7806856.832    -6083265.755    22115961.956    22115965.828         178.000
       118.000
 91  3 18  7 38  0.0000000  0  3G18G14G13
 -10503057.299    -8184197.676    20638711.493    20638712.298         255.000
       220.000
  -7436261.067    -5794490.548    22186484.518    22186488.755         169.000
       116.000
   3840361.947     2992487.176    24730470.225    24730475.690          69.000
        42.000
 91  3 18  7 40  0.0000000  0  4G13G18G14G20
   4332980.008     3376345.361    24824212.788    24824217.761          67.000
        38.000
 -10650625.692    -8299185.975    20610630.285    20610630.997         255.000
       220.000
  -7060147.099    -5501415.509    22258057.069    22258061.385         162.000
       112.000
        -0.347           0.020    25193375.964    25193378.355          54.000
        45.000
 91  3 18  7 42  0.0000000  0  4G13G18G14G20
   4827675.715     3761822.631    24918349.974    24918354.151          62.000
        31.000
 -10789278.752    -8407227.287    20584245.338    20584246.159         255.000
       226.000
  -6678644.903    -5204141.968    22330655.395    22330660.000         159.000
       112.000
    383961.335      299190.714    25266441.356    25266444.091          52.000
        46.000
 91  3 18  7 44  0.0000000  0  2G18G14
 -10918962.297    -8508279.361    20559567.418    20559568.052         255.000
       217.000
  -6291887.967    -4902773.796    22404253.360    22404258.038         162.000
       110.000
 91  3 18  7 46  0.0000000  0  2G18G14
 -11039624.691    -8602302.142    20536606.314    20536606.879         255.000
       217.000
  -5900007.528    -4597413.398    22478826.416    22478831.498         153.000
       107.000
 91  3 18  7 48  0.0000000  0  2G18G14
 -11151219.425    -8689259.194    20515370.540    20515371.217         255.000
       222.000
  -5503139.174    -4288166.371    22554348.767    22554353.988         150.000
       101.000
 91  3 18  7 50  0.0000000  0  2G18G14
 -11253701.748    -8769115.818    20495868.951    20495869.681         255.000
       222.000
  -5101415.180    -3975135.750    22630794.942    22630800.860         141.000
        97.000
 91  3 18  7 52  0.0000000  0  2G14G18
  -4694971.027    -3658427.261    22708139.728    22708145.709         134.000
        93.000
 -11347034.206    -8841842.682    20478108.546    20478109.460         255.000
       225.000
 91  3 18  7 54  0.0000000  0  2G18G14
 -11431181.040    -8907411.442    20462095.777    20462096.609         255.000
       224.000
  -4283941.865    -3338146.032    22786357.062    22786363.220         138.000
        95.000
 91  3 18  7 56  0.0000000  0  2G14G18
  -3868464.479    -3014398.639    22865420.582    22865427.225         130.000
        90.000
 -11506113.080    -8965800.039    20447836.775    20447837.564         255.000
       228.000
 91  3 18  7 58  0.0000000  0  4G14G 3G19G18
  -3448675.908    -2687291.979    22945304.425    22945311.750         123.000
        88.000
        -0.851          -0.043    23710980.741    23710986.752          77.000
        59.000
        -0.507          -0.405    23973164.495    23973171.928         114.000
        72.000
 -11571805.997    -9016989.611    20435336.003    20435336.848         255.000
       227.000
 91  3 18  8  0  0.0000000  0  3G 3G14G18
   -393107.981     -306316.902    23636174.604    23636180.632          88.000
        63.000
  -3024712.040    -2356931.947    23025983.716    23025990.680         125.000
        83.000
 -11628235.782    -9060961.139    20424597.974    20424598.912         255.000
       229.000
 91  3 18  8  2  0.0000000  0  3G 3G14G18
   -778483.528     -606609.361    23562840.116    23562845.456          85.000
        61.000
  -2596709.719    -2023425.110    23107430.253    23107438.007         115.000
        79.000
 -11675385.535    -9097701.366    20415625.734    20415626.747         255.000
       229.000
 91  3 18  8  4  0.0000000  0  3G 3G18G14
  -1155899.283     -900699.200    23491019.844    23491025.082          85.000
        63.000
 -11713242.703    -9127200.397    20408421.761    20408422.754         255.000
       232.000
  -2164805.821    -1686878.029    23189620.301    23189628.236         115.000
        79.000
 91  3 18  8  6  0.0000000  0  3G 3G18G14
  -1525132.108    -1188412.920    23420757.062    23420762.611          88.000
        66.000
 -11741799.737    -9149452.752    20402987.668    20402988.662         255.000
       227.000
  -1729138.343    -1347398.396    23272526.209    23272534.647         116.000
        78.000
 91  3 18  8  8  0.0000000  0  2G18G14
 -11761052.701    -9164455.323    20399324.110    20399325.182         255.000
       232.000
  -1289843.713    -1005092.460    23356122.306    23356131.123         104.000
        73.000
 91  3 18  8 10  0.0000000  0  3G 3G18G14
        -0.215           0.313    23285071.766    23285077.527          95.000
        68.000
 -11770999.626    -9172206.306    20397431.401    20397432.513         255.000
       230.000
   -847059.881     -660067.705    23440382.621    23440391.593         102.000
        72.000
 91  3 18  8 12  0.0000000  0  3G 3G18G14
   -343360.591     -267552.846    23219732.211    23219737.699          98.000
        69.000
 -11771648.140    -9172711.695    20397308.037    20397309.160         255.000
       232.000
   -400923.476     -312430.561    23525280.558    23525290.495          99.000
        71.000
 91  3 18  8 14  0.0000000  0  2G18G 3
 -11763005.297    -9165977.212    20398952.881    20398953.976         255.000
       231.000
   -677666.490     -528050.797    23156115.803    23156121.029          97.000
        68.000
 91  3 18  8 16  0.0000000  0  3G 3G18G19
  -1002707.740     -781329.739    23094262.487    23094267.970          96.000
        68.000
 -11745086.264    -9152014.523    20402362.861    20402364.117         255.000
       230.000
        -0.720          -0.242    23223866.050    23223872.457         155.000
        91.000
 91  3 18  8 18  0.0000000  0  3G19G18G14
   -418615.711     -326193.101    23144205.834    23144212.116         159.000
        91.000
 -11717906.866    -9130835.843    20407535.018    20407536.130         255.000
       228.000
        -0.386          -0.423    23783540.892    23783551.911          86.000
        62.000
 91  3 18  8 20  0.0000000  0  4G 3G14G19G18
        -0.442           0.389    22976001.554    22976006.678         112.000
        72.000
    458170.652      357013.971    23870729.310    23870740.971          84.000
        62.000
   -832863.033     -648982.541    23065376.396    23065382.846         165.000
        97.000
 -11681490.436    -9102459.702    20414465.048    20414466.352         255.000
       228.000
 91  3 18  8 22  0.0000000  0  5G14G 3G16G19G18
    919008.567      716106.266    23958425.449    23958437.098          86.000
        60.000
   -296023.213     -230666.645    22919670.235    22919675.450         114.000
        75.000
        -0.369          -0.271    24372231.576    24372234.620          74.000
        64.000
  -1242582.863     -968244.076    22987408.972    22987415.116         172.000
        99.000
 -11635863.548    -9066906.707    20423147.876    20423149.249         255.000
       226.000
 91  3 18  8 24  0.0000000  0  5G14G 3G16G19G18
   1382375.969     1077169.418    24046603.317    24046615.974          80.000
        59.000
   -581980.295     -453490.265    22865254.222    22865259.684         112.000
        75.000
   -442074.262     -344473.499    24288108.101    24288111.186          75.000
        68.000
  -1647617.211    -1283854.657    22910333.142    22910338.991         176.000
       102.000
 -11581055.360    -9024199.207    20433577.703    20433579.123         255.000
       225.000
 91  3 18  8 26  0.0000000  0  4G14G19G 3G18
   1848138.825     1440099.015    24135237.456    24135249.984          77.000
        52.000
  -2047808.033    -1595691.125    22834178.838    22834184.618         171.000
       100.000
   -857682.174     -668322.960    22812789.930    22812795.352         108.000
        75.000
 -11517100.469    -8974364.419    20445748.052    20445749.379         255.000
       232.000
 91  3 18  8 28  0.0000000  0  4G14G19G 3G18
   2316160.613     1804788.671    24224300.399    24224314.156          71.000
        56.000
  -2442996.491    -1903629.608    22758976.611    22758982.004         181.000
       102.000
  -1122943.632     -875020.275    22762312.314    22762317.765         111.000
        75.000
 -11444038.468    -8917433.213    20459651.373    20459652.887         255.000
       225.000
 91  3 18  8 30  0.0000000  0  3G 3G19G18
  -1377587.310    -1073443.871    22713855.284    22713860.735         112.000
        75.000
  -2833027.069    -2207548.949    22684755.944    22684761.046         181.000
       103.000
 -11361912.202    -8853438.924    20475279.709    20475281.260         255.000
       229.000
 91  3 18  8 32  0.0000000  0  4G 3G14G16G18
  -1621439.351    -1263458.300    22667451.679    22667456.900         117.000
        80.000
        -0.818          -0.166    24403614.566    24403630.204          76.000
        54.000
         0.080           0.069    23956663.160    23956665.640          92.000
        76.000
 -11270768.656    -8782418.176    20492623.842    20492625.478         255.000
       223.000
 91  3 18  8 34  0.0000000  0  5G 3G14G16G19G18
  -1854332.477    -1444933.235    22623133.729    22623138.860         124.000
        80.000
    473989.713      369340.239    24493813.152    24493830.510          64.000
        54.000
   -428095.651     -333581.228    23875199.253    23875201.328          96.000
        70.000
        -0.460          -0.701    22539376.440    22539381.578         194.000
       112.000
 -11170657.760    -8704409.922    20511674.523    20511676.183         255.000
       219.000
 91  3 18  8 36  0.0000000  0  4G 3G16G19G18
  -2076106.619    -1617744.399    22580931.346    22580936.692         126.000
        84.000
   -852965.946     -664649.067    23794349.579    23794351.965         105.000
        81.000
   -373630.309     -291140.224    22468276.682    22468281.815         202.000
       116.000
 -11061635.820    -8619458.027    20532421.005    20532422.625         255.000
       216.000
 91  3 18  8 38  0.0000000  0  4G 3G16G19G18
  -2286607.210    -1781770.884    22540874.511    22540879.992         124.000
        85.000
  -1274464.814     -993089.784    23714140.766    23714143.829          99.000
        87.000
   -741488.587     -577782.478    22398275.147    22398280.043         203.000
       116.000
 -10943759.495    -8527606.638    20554852.272    20554854.081         255.000
       219.000
 91  3 18  8 40  0.0000000  0  4G16G19G 3G18
  -1692443.920    -1318787.450    23634601.288    23634604.616         102.000
        84.000
  -1103423.904     -859809.532    22329400.816    22329405.376         224.000
       119.000
  -2485684.887    -1936896.425    22502991.214    22502996.704         132.000
        89.000
 -10817091.287    -8428904.342    20578956.592    20578958.374         255.000
       211.000
 91  3 18  8 42  0.0000000  0  4G 3G14G16G18
  -2673199.209    -2083011.482    22467308.799    22467313.916         131.000
        87.000
        -0.445          -0.844    24857634.969    24857652.846          72.000
        45.000
  -2106757.345    -1641628.935    23555760.461    23555763.135         113.000
        88.000
 -10681695.581    -8323401.457    20604721.678    20604723.602         255.000
       211.000
 91  3 18  8 44  0.0000000  0  3G 3G18G16
  -2849017.118    -2220012.597    22433851.704    22433857.043         132.000
        88.000
 -10537644.259    -8211153.934    20632133.957    20632135.905         255.000
       213.000
  -2517255.624    -1961497.771    23477644.865    23477647.849         112.000
        86.000
 91  3 18  8 46  0.0000000  0  4G 3G18G16G19
  -3013011.032    -2347799.834    22402644.549    22402649.830         132.000
        89.000
 -10385008.812    -8092217.529    20661179.790    20661181.685         255.000
       206.000
  -2923789.527    -2278277.675    23400283.876    23400287.463         111.000
        92.000
         0.112           0.251    22129821.077    22129825.784         215.000
       122.000
 91  3 18  8 48  0.0000000  0  4G16G 3G19G18
  -3326209.187    -2591851.519    23323705.984    23323708.941         113.000
        88.000
  -3165063.231    -2466282.365    22373710.196    22373715.528         132.000
        88.000
   -336777.184     -262423.342    22065734.392    22065738.949         217.000
       123.000
 -10223864.394    -7966650.736    20691844.844    20691846.797         255.000
       205.000
 91  3 18  8 50  0.0000000  0  4G 3G16G19G18
  -3305061.891    -2575372.080    22347069.253    22347074.611         136.000
        90.000
  -3724361.142    -2902099.575    23247939.869    23247943.207         117.000
        96.000
   -666905.505     -519665.919    22002912.891    22002917.098         219.000
       122.000
 -10054289.417    -7834514.631    20724113.955    20724116.151         255.000
       201.000
 91  3 18  8 52  0.0000000  0  4G 3G16G19G18
  -3432903.996    -2674989.117    22322741.628    22322746.701         143.000
        89.000
  -4118096.153    -3208905.953    23173015.090    23173018.281         130.000
       102.000
   -990247.463     -771620.391    21941382.582    21941387.036         235.000
       129.000
  -9876365.898    -7695873.142    20757971.957    20757974.010         255.000
       201.000
 91  3 18  8 54  0.0000000  0  4G 3G16G19G18
  -3548494.562    -2765059.413    22300745.263    22300750.424         148.000
        92.000
  -4507261.549    -3512151.516    23098959.169    23098962.111         127.000
        99.000
  -1306664.999    -1018179.154    21881170.192    21881174.429         245.000
       132.000
  -9690181.838    -7550794.904    20793401.752    20793404.028         255.000
       201.000
 91  3 18  8 56  0.0000000  0  4G 3G16G19G18
  -3651748.554    -2845516.391    22281096.244    22281100.992         144.000
        91.000
  -4891704.350    -3811717.284    23025802.219    23025805.128         129.000
       101.000
  -1616024.779    -1259238.384    21822300.728    21822304.873         240.000
       131.000
  -9495824.006    -7399347.564    20830386.964    20830389.321         255.000
       198.000
 91  3 18  8 58  0.0000000  0  4G 3G18G16G19
  -3742589.203    -2916301.197    22263809.539    22263814.587         141.000
        92.000
  -9293383.939    -7241602.363    20868910.205    20868912.650         255.000
       195.000
  -5271272.696    -4107484.942    22953572.719    22953575.521         133.000
       101.000
  -1918192.839    -1494693.644    21764799.754    21764803.775         240.000
       132.000
 91  3 18  9  0  0.0000000  0  4G 3G16G19G18
  -3820947.404    -2977359.429    22248898.349    22248903.367         144.000
        93.000
  -5645813.650    -4399335.220    22882300.081    22882302.905         141.000
       107.000
  -2213041.838    -1724445.772    21708691.710    21708695.480         252.000
       134.000
  -9082955.368    -7077632.319    20908953.667    20908956.231         255.000
       194.000
 91  3 18  9  2  0.0000000  0  3G16G 3G18
  -6015171.975    -4687147.268    22812013.763    22812016.632         141.000
       107.000
  -3886761.851    -3028643.005    22236373.917    22236378.992         143.000
        94.000
  -8864634.134    -6907512.188    20950499.162    20950501.685         255.000
       192.000
 91  3 18  9  4  0.0000000  0  4G16G19G 3G18
  -6379194.393    -4970800.879    22742742.443    22742745.493         144.000
       114.000
        -0.462          -0.938    21600749.847    21600753.613         255.000
       137.000
  -3939982.726    -3070113.605    22226246.170    22226251.056         145.000
        94.000
  -8638519.398    -6731319.205    20993527.645    20993530.080         255.000
       188.000
 91  3 18  9  6  0.0000000  0  4G16G19G 3G18
  -6737730.128    -5250179.301    22674515.415    22674518.153         155.000
       113.000
   -272141.896     -212058.998    21548962.800    21548966.568         255.000
       140.000
  -3980569.855    -3101740.359    22218522.986    22218528.021         146.000
        97.000
  -8404712.866    -6549132.614    21038019.640    21038022.347         255.000
       186.000
 91  3 18  9  8  0.0000000  0  3G16G 3G18
  -7090624.386    -5525161.826    22607361.808    22607364.744         160.000
       115.000
  -4008488.873    -3123495.688    22213210.524    22213215.578         148.000
       100.000
  -8163317.696    -6361032.856    21083955.998    21083958.761         255.000
       183.000
 91  3 18  9 10  0.0000000  0  4G16G19G 3G18
  -7437724.764    -5795629.760    22541310.608    22541313.512         159.000
       116.000
        -0.043          -0.397    21449868.287    21449871.797         255.000
       140.000
  -4023716.127    -3135361.315    22210312.863    22210318.163         142.000
        98.000
  -7914440.562    -6167103.045    21131316.009    21131318.816         255.000
       181.000
 91  3 18  9 12  0.0000000  0  4G16G19G 3G18
  -7778879.569    -6061464.939    22476391.453    22476394.638         163.000
       120.000
   -248377.821     -193541.442    21402603.578    21402607.044         255.000
       141.000
  -4026239.565    -3137328.140    22209833.413    22209838.396         146.000
        97.000
  -7658189.172    -5967427.114    21180079.182    21180082.242         243.000
       177.000
 91  3 18  9 14  0.0000000  0  4G16G19G 3G18
  -8113934.823    -6322547.235    22412632.792    22412635.908         174.000
       130.000
   -488612.034     -380736.811    21356888.462    21356891.881         255.000
       144.000
  -4016053.174    -3129391.269    22211772.076    22211777.391         152.000
       100.000
  -7394671.774    -5762089.427    21230225.403    21230228.541         249.000
       177.000
 91  3 18  9 16  0.0000000  0  4G16G19G 3G18
  -8442740.991    -6578759.859    22350063.184    22350066.325         174.000
       130.000
   -720601.534     -561507.719    21312742.296    21312745.668         255.000
       145.000
  -3993162.696    -3111554.933    22216128.325    22216133.696         147.000
        99.000
  -7124002.622    -5551179.001    21281732.425    21281735.852         243.000
       175.000
 91  3 18  9 18  0.0000000  0  4G16G19G 3G18
  -8765147.187    -6829985.683    22288711.429    22288714.532         177.000
       129.000
   -944246.117     -735776.118    21270183.890    21270187.437         255.000
       161.000
  -3957581.247    -3083829.108    22222899.262    22222904.499         142.000
        95.000
  -6846295.171    -5334784.234    21334578.855    21334582.416         231.000
       168.000
 91  3 18  9 20  0.0000000  0  4G16G19G 3G18
  -9081003.669    -7076107.552    22228605.797    22228608.756         183.000
       130.000
  -1159447.173     -903465.168    21229232.598    21229235.910         255.000
       170.000
  -3909333.848    -3046234.005    22232080.478    22232086.049         146.000
        96.000
  -6561662.618    -5112993.311    21388743.269    21388746.874         228.000
       166.000
 91  3 18  9 22  0.0000000  0  4G16G19G 3G18
  -9390164.186    -7317011.919    22169774.644    22169777.621         190.000
       132.000
  -1366113.149    -1064503.518    21189905.150    21189908.579         255.000
       176.000
  -3848453.070    -2998794.688    22243665.975    22243671.610         147.000
        97.000
  -6270222.237    -4885897.571    21444203.019    21444206.544         235.000
       165.000
 91  3 18  9 24  0.0000000  0  4G16G19G 3G18
  -9692480.476    -7552583.354    22112245.949    22112248.955         192.000
       134.000
  -1564154.860    -1218821.818    21152219.316    21152222.558         255.000
       174.000
  -3774981.551    -2941544.282    22257647.377    22257652.765         150.000
        97.000
  -5972093.649    -4653590.244    21500935.413    21500939.388         224.000
       164.000
 91  3 18  9 26  0.0000000  0  4G16G19G 3G18
  -9987805.296    -7782706.809    22056047.622    22056050.776         195.000
       133.000
  -1753487.485    -1366353.851    21116190.410    21116193.889         255.000
       172.000
  -3688971.149    -2874523.646    22274014.819    22274020.552         145.000
        97.000
  -5667394.911    -4416163.339    21558918.235    21558922.318         213.000
       158.000
 91  3 18  9 28  0.0000000  0  4G16G19G 3G18
 -10275996.697    -8007272.190    22001207.126    22001210.528         197.000
       135.000
  -1934030.617    -1507036.768    21081834.217    21081837.505         255.000
       171.000
  -3590482.642    -2797780.038    22292757.103    22292762.889         143.000
        95.000
  -5356248.197    -4173712.023    21618128.076    21618132.354         211.000
       156.000
 91  3 18  9 30  0.0000000  0  4G16G19G 3G18
 -10556909.406    -8226165.627    21947751.639    21947755.034         208.000
       139.000
  -2105707.758    -1640811.192    21049165.191    21049168.592         255.000
       181.000
  -3479585.384    -2711366.960    22313860.595    22313866.462         144.000
        96.000
  -5038774.660    -3926330.760    21678541.795    21678546.108         214.000
       156.000
 91  3 18  9 32  0.0000000  0  4G16G19G 3G18
 -10830403.790    -8439278.386    21895707.472    21895711.116         208.000
       141.000
  -2268447.742    -1767621.614    21018196.794    21018200.335         255.000
       179.000
  -3356358.475    -2615346.481    22337310.112    22337316.308         140.000
        96.000
  -4715096.640    -3674114.851    21740136.068    21740140.617         203.000
       149.000
 91  3 18  9 34  0.0000000  0  4G16G19G 3G18
 -11096341.173    -8646502.587    21845101.423    21845105.174         209.000
       141.000
  -2422182.163    -1887414.583    20988942.117    20988945.662         255.000
       182.000
  -3220889.787    -2509787.481    22363089.552    22363096.208         133.000
        94.000
  -4385339.547    -3417161.960    21802887.233    21802892.198         195.000
       147.000
 91  3 18  9 36  0.0000000  0  3G19G 3G18
  -2566848.032    -2000141.212    20961413.121    20961416.418         255.000
       177.000
  -3073274.824    -2394763.296    22391180.326    22391186.734         142.000
        94.000
  -4049628.562    -3155569.702    21866771.566    21866776.532         195.000
       145.000
 91  3 18  9 38  0.0000000  0  3G19G 3G18
  -2702386.536    -2105755.428    20935620.837    20935624.155         255.000
       182.000
  -2913618.059    -2270356.036    22421562.446    22421568.997         135.000
        91.000
  -3708088.480    -2889435.341    21931765.153    21931770.169         191.000
       141.000
 91  3 18  9 40  0.0000000  0  4G16G19G 3G18
        -0.465          -0.222    21702170.500    21702174.314         222.000
       151.000
  -2828744.219    -2204215.864    20911575.577    20911578.911         255.000
       180.000
  -2742033.486    -2136654.844    22454214.521    22454221.513         136.000
        87.000
  -3360845.299    -2618857.002    21997843.753    21997849.185         184.000
       140.000
